Time,TemperatureF,DewpointF,PressureIn,WindDirection,WindDirectionDegrees,WindSpeedMPH,WindSpeedGustMPH,Humidity,HourlyPrecipIn,Conditions,Clouds,dailyrainin,SolarRadiationWatts/m^2,SoftwareType,DateUTC
2013-03-21 00:00:00,70.7,63.9,29.88,NE,36,2.0,5.0,79,0.00,,FEW,0.01,0.00,VWS V14.01,2013-03-21 04:00:00,
2013-03-21 00:05:00,70.5,63.7,29.89,North,351,2.0,6.0,79,0.00,,FEW,0.00,0.00,VWS V14.01,2013-03-21 04:05:00,
2013-03-21 00:10:00,70.4,63.6,29.89,NNE,21,0.0,6.0,79,0.00,,FEW,0.00,0.00,VWS V14.01,2013-03-21 04:10:00,
2013-03-21 00:15:00,70.4,63.6,29.89,NNE,21,1.0,2.0,79,0.00,,FEW,0.00,0.00,VWS V14.01,2013-03-21 04:15:00,
2013-03-21 00:20:00,70.3,63.5,29.86,North,360,1.0,4.0,79,0.00,,FEW,0.00,0.00,VWS V14.01,2013-03-21 04:20:00,
2013-03-21 00:25:00,70.3,63.5,29.86,NNE,20,1.0,3.0,79,0.00,,FEW,0.00,0.00,VWS V14.01,2013-03-21 04:25:00,
2013-03-21 00:30:00,70.2,63.4,29.86,North,355,2.0,4.0,79,0.00,,FEW,0.00,0.00,VWS V14.01,2013-03-21 04:30:00,
2013-03-21 00:31:00,70.1,63.3,29.86,North,355,1.0,4.0,79,0.00,,FEW,0.00,0.00,VWS V14.01,2013-03-21 04:31:00,
2013-03-21 00:35:00,70.1,63.3,29.85,North,355,0.0,2.0,79,0.00,,FEW,0.00,0.00,VWS V14.01,2013-03-21 04:35:00,
2013-03-21 00:36:00,70.0,63.2,29.85,North,355,1.0,2.0,79,0.00,,FEW,0.00,0.00,VWS V14.01,2013-03-21 04:36:00,
2013-03-21 00:40:00,70.0,63.5,29.85,North,355,0.0,2.0,80,0.00,,FEW,0.00,0.00,VWS V14.01,2013-03-21 04:40:00,
2013-03-21 00:42:00,69.9,63.5,29.85,North,355,1.0,2.0,80,0.00,,FEW,0.00,0.00,VWS V14.01,2013-03-21 04:42:00,
2013-03-21 00:45:00,69.9,63.5,29.85,North,349,0.0,2.0,80,0.00,,FEW,0.00,0.00,VWS V14.01,2013-03-21 04:45:00,
2013-03-21 00:46:00,69.8,63.4,29.85,North,349,2.0,2.0,80,0.00,,FEW,0.00,0.00,VWS V14.01,2013-03-21 04:46:00,
2013-03-21 00:47:00,69.8,63.4,29.86,North,349,1.0,2.0,80,0.00,,FEW,0.00,0.00,VWS V14.01,2013-03-21 04:47:00,
2013-03-21 00:50:00,69.8,63.4,29.86,North,349,1.0,2.0,80,0.00,,FEW,0.00,0.00,VWS V14.01,2013-03-21 04:50:00,
2013-03-21 00:51:00,69.7,63.3,29.86,NW,313,2.0,2.0,80,0.00,,FEW,0.00,0.00,VWS V14.01,2013-03-21 04:51:00,
2013-03-21 00:52:00,69.7,63.3,29.86,NW,311,0.0,1.0,80,0.00,,FEW,0.00,0.00,VWS V14.01,2013-03-21 04:52:00,
2013-03-21 00:55:00,69.7,63.3,29.86,WSW,246,1.0,2.0,80,0.00,,FEW,0.00,0.00,VWS V14.01,2013-03-21 04:55:00,
2013-03-21 00:56:00,69.7,63.3,29.86,WSW,246,2.0,2.0,80,0.00,,FEW,0.00,0.00,VWS V14.01,2013-03-21 04:56:00,
2013-03-21 00:57:00,69.7,63.3,29.86,West,259,2.0,4.0,80,0.00,,FEW,0.00,0.00,VWS V14.01,2013-03-21 04:57:00,
2013-03-21 01:00:00,69.7,63.3,29.86,WSW,245,2.0,4.0,80,0.00,,FEW,0.00,0.00,VWS V14.01,2013-03-21 05:00:00,
2013-03-21 01:01:00,69.6,63.5,29.86,West,259,2.0,4.0,81,0.00,,FEW,0.00,0.00,VWS V14.01,2013-03-21 05:01:00,
2013-03-21 01:02:00,69.6,63.5,29.87,WSW,242,2.0,4.0,81,0.00,,FEW,0.00,0.00,VWS V14.01,2013-03-21 05:02:00,
2013-03-21 01:05:00,69.6,63.5,29.87,West,275,2.0,4.0,81,0.00,,FEW,0.00,0.00,VWS V14.01,2013-03-21 05:05:00,
2013-03-21 01:06:00,69.6,63.5,29.87,West,275,2.0,4.0,81,0.00,,FEW,0.00,0.00,VWS V14.01,2013-03-21 05:06:00,
2013-03-21 01:07:00,69.6,63.5,29.87,West,265,1.0,4.0,81,0.00,,FEW,0.00,0.00,VWS V14.01,2013-03-21 05:07:00,
2013-03-21 01:10:00,69.5,63.4,29.87,WSW,258,1.0,4.0,81,0.00,,FEW,0.00,0.00,VWS V14.01,2013-03-21 05:10:00,
2013-03-21 01:12:00,69.5,63.4,29.87,WSW,257,1.0,4.0,81,0.00,,FEW,0.00,0.00,VWS V14.01,2013-03-21 05:12:00,
2013-03-21 01:13:00,69.5,63.4,29.87,WSW,250,0.0,3.0,81,0.00,,FEW,0.00,0.00,VWS V14.01,2013-03-21 05:13:00,
2013-03-21 01:15:00,69.5,63.4,29.87,WSW,241,1.0,3.0,81,0.00,,FEW,0.00,0.00,VWS V14.01,2013-03-21 05:15:00,
2013-03-21 01:17:00,69.4,63.3,29.86,WSW,242,1.0,3.0,81,0.00,,FEW,0.00,0.00,VWS V14.01,2013-03-21 05:17:00,
2013-03-21 01:18:00,69.4,63.3,29.86,WSW,242,0.0,3.0,81,0.00,,FEW,0.00,0.00,VWS V14.01,2013-03-21 05:18:00,
2013-03-21 01:20:00,69.4,63.3,29.86,WSW,242,0.0,3.0,81,0.00,,FEW,0.00,0.00,VWS V14.01,2013-03-21 05:20:00,
2013-03-21 01:22:00,69.4,63.3,29.86,WSW,242,0.0,0.0,81,0.00,,FEW,0.00,0.00,VWS V14.01,2013-03-21 05:22:00,
2013-03-21 01:23:00,69.4,63.3,29.86,WSW,242,0.0,0.0,81,0.00,,FEW,0.00,0.00,VWS V14.01,2013-03-21 05:23:00,
2013-03-21 01:25:00,69.4,63.3,29.86,WSW,242,0.0,1.0,81,0.00,,FEW,0.00,0.00,VWS V14.01,2013-03-21 05:25:00,
2013-03-21 01:27:00,69.3,63.2,29.86,WSW,242,0.0,1.0,81,0.00,,FEW,0.00,0.00,VWS V14.01,2013-03-21 05:27:00,
2013-03-21 01:28:00,69.3,63.2,29.86,WSW,242,0.0,1.0,81,0.00,,FEW,0.00,0.00,VWS V14.01,2013-03-21 05:28:00,
2013-03-21 01:30:00,69.3,63.2,29.86,WSW,242,0.0,1.0,81,0.00,,FEW,0.00,0.00,VWS V14.01,2013-03-21 05:30:00,
2013-03-21 01:32:00,69.3,63.2,29.85,WSW,242,0.0,1.0,81,0.00,,FEW,0.00,0.00,VWS V14.01,2013-03-21 05:32:00,
2013-03-21 01:33:00,69.3,63.2,29.85,WSW,242,0.0,0.0,81,0.00,,FEW,0.00,0.00,VWS V14.01,2013-03-21 05:33:00,
2013-03-21 01:35:00,69.2,63.5,29.85,WSW,242,0.0,0.0,82,0.00,,FEW,0.00,0.00,VWS V14.01,2013-03-21 05:35:00,
2013-03-21 01:37:00,69.2,63.5,29.85,WSW,242,0.0,0.0,82,0.00,,FEW,0.00,0.00,VWS V14.01,2013-03-21 05:37:00,
2013-03-21 01:38:00,69.2,63.5,29.85,WSW,242,0.0,0.0,82,0.00,,FEW,0.00,0.00,VWS V14.01,2013-03-21 05:38:00,
2013-03-21 01:40:00,69.1,63.4,29.85,WSW,243,1.0,2.0,82,0.00,,FEW,0.00,0.00,VWS V14.01,2013-03-21 05:40:00,
2013-03-21 01:41:00,69.2,63.5,29.85,WSW,242,1.0,1.0,82,0.00,,FEW,0.00,0.00,VWS V14.01,2013-03-21 05:41:00,
2013-03-21 01:42:00,69.1,63.4,29.85,WSW,253,1.0,1.0,82,0.00,,FEW,0.00,0.00,VWS V14.01,2013-03-21 05:42:00,
2013-03-21 01:43:00,69.1,63.4,29.85,WSW,250,1.0,1.0,82,0.00,,FEW,0.00,0.00,VWS V14.01,2013-03-21 05:43:00,
2013-03-21 01:46:00,69.0,63.3,29.85,WSW,256,1.0,2.0,82,0.00,,FEW,0.00,0.00,VWS V14.01,2013-03-21 05:46:00,
2013-03-21 01:47:00,69.0,63.3,29.86,WSW,256,0.0,2.0,82,0.00,,FEW,0.00,0.00,VWS V14.01,2013-03-21 05:47:00,
2013-03-21 01:48:00,69.0,63.3,29.86,WSW,256,0.0,2.0,82,0.00,,FEW,0.00,0.00,VWS V14.01,2013-03-21 05:48:00,
2013-03-21 01:50:00,68.9,63.2,29.86,WSW,256,0.0,2.0,82,0.00,,FEW,0.00,0.00,VWS V14.01,2013-03-21 05:50:00,
2013-03-21 01:51:00,68.9,63.2,29.86,WSW,256,0.0,2.0,82,0.00,,FEW,0.00,0.00,VWS V14.01,2013-03-21 05:51:00,
2013-03-21 01:52:00,68.9,63.2,29.86,WSW,256,0.0,0.0,82,0.00,,FEW,0.00,0.00,VWS V14.01,2013-03-21 05:52:00,
2013-03-21 01:53:00,68.9,63.5,29.86,WSW,256,0.0,1.0,83,0.00,,FEW,0.00,0.00,VWS V14.01,2013-03-21 05:53:00,
2013-03-21 01:54:00,68.9,63.5,29.86,WSW,256,0.0,1.0,83,0.00,,FEW,0.00,0.00,VWS V14.01,2013-03-21 05:54:00,
2013-03-21 01:57:00,68.8,63.1,29.86,WSW,256,1.0,1.0,82,0.00,,FEW,0.00,0.00,VWS V14.01,2013-03-21 05:57:00,
2013-03-21 01:58:00,68.8,63.4,29.86,WSW,256,2.0,2.0,83,0.00,,FEW,0.00,0.00,VWS V14.01,2013-03-21 05:58:00,
2013-03-21 01:59:00,68.8,63.4,29.86,WNW,288,1.0,2.0,83,0.00,,FEW,0.00,0.00,VWS V14.01,2013-03-21 05:59:00,
2013-03-21 02:00:00,68.7,63.3,29.85,WNW,288,0.0,2.0,83,0.00,,FEW,0.00,0.00,VWS V14.01,2013-03-21 06:00:00,
2013-03-21 02:02:00,68.7,63.3,29.85,WNW,288,0.0,1.0,83,0.00,,FEW,0.00,0.00,VWS V14.01,2013-03-21 06:02:00,
2013-03-21 02:03:00,68.7,63.3,29.85,WNW,288,0.0,1.0,83,0.00,,FEW,0.00,0.00,VWS V14.01,2013-03-21 06:03:00,
2013-03-21 02:04:00,68.7,63.3,29.85,WNW,288,0.0,1.0,83,0.00,,FEW,0.00,0.00,VWS V14.01,2013-03-21 06:04:00,
2013-03-21 02:07:00,68.6,63.2,29.85,WNW,288,0.0,1.0,83,0.00,,FEW,0.00,0.00,VWS V14.01,2013-03-21 06:07:00,
2013-03-21 02:08:00,68.6,63.2,29.85,WNW,288,0.0,1.0,83,0.00,,FEW,0.00,0.00,VWS V14.01,2013-03-21 06:08:00,
2013-03-21 02:09:00,68.6,63.2,29.85,WNW,288,1.0,1.0,83,0.00,,FEW,0.00,0.00,VWS V14.01,2013-03-21 06:09:00,
2013-03-21 02:10:00,68.5,63.5,29.85,West,264,1.0,2.0,84,0.00,,FEW,0.00,0.00,VWS V14.01,2013-03-21 06:10:00,
2013-03-21 02:13:00,68.5,63.5,29.85,WSW,250,1.0,2.0,84,0.00,,FEW,0.00,0.00,VWS V14.01,2013-03-21 06:13:00,
2013-03-21 02:14:00,68.5,63.5,29.85,WSW,250,1.0,2.0,84,0.00,,FEW,0.00,0.00,VWS V14.01,2013-03-21 06:14:00,
2013-03-21 02:15:00,68.5,63.5,29.85,WSW,250,0.0,2.0,84,0.00,,FEW,0.00,0.00,VWS V14.01,2013-03-21 06:15:00,
2013-03-21 02:18:00,68.4,63.4,29.85,WSW,244,2.0,2.0,84,0.00,,FEW,0.00,0.00,VWS V14.01,2013-03-21 06:18:00,
2013-03-21 02:19:00,68.4,63.4,29.85,SW,236,0.0,3.0,84,0.00,,FEW,0.00,0.00,VWS V14.01,2013-03-21 06:19:00,
2013-03-21 02:20:00,68.4,63.4,29.85,SW,236,0.0,3.0,84,0.00,,FEW,0.00,0.00,VWS V14.01,2013-03-21 06:20:00,
2013-03-21 02:23:00,68.4,63.4,29.85,SW,236,1.0,2.0,84,0.00,,FEW,0.00,0.00,VWS V14.01,2013-03-21 06:23:00,
2013-03-21 02:24:00,68.4,63.4,29.85,SW,236,0.0,2.0,84,0.00,,FEW,0.00,0.00,VWS V14.01,2013-03-21 06:24:00,
2013-03-21 02:25:00,68.4,63.7,29.85,SW,236,1.0,2.0,85,0.00,,FEW,0.00,0.00,VWS V14.01,2013-03-21 06:25:00,
2013-03-21 02:28:00,68.3,63.6,29.85,West,261,1.0,2.0,85,0.00,,FEW,0.00,0.00,VWS V14.01,2013-03-21 06:28:00,
2013-03-21 02:29:00,68.3,63.6,29.85,WSW,250,2.0,2.0,85,0.00,,FEW,0.00,0.00,VWS V14.01,2013-03-21 06:29:00,
2013-03-21 02:30:00,68.3,63.6,29.85,West,268,0.0,3.0,85,0.00,,FEW,0.00,0.00,VWS V14.01,2013-03-21 06:30:00,
2013-03-21 02:33:00,68.3,63.6,29.85,WNW,298,1.0,3.0,85,0.00,,FEW,0.00,0.00,VWS V14.01,2013-03-21 06:33:00,
2013-03-21 02:34:00,68.3,63.6,29.85,West,265,1.0,3.0,85,0.00,,FEW,0.00,0.00,VWS V14.01,2013-03-21 06:34:00,
2013-03-21 02:35:00,68.3,63.6,29.85,West,266,1.0,3.0,85,0.00,,FEW,0.00,0.00,VWS V14.01,2013-03-21 06:35:00,
2013-03-21 02:38:00,68.2,63.5,29.85,WSW,257,2.0,3.0,85,0.00,,FEW,0.00,0.00,VWS V14.01,2013-03-21 06:38:00,
2013-03-21 02:39:00,68.2,63.5,29.85,West,266,1.0,3.0,85,0.00,,FEW,0.00,0.00,VWS V14.01,2013-03-21 06:39:00,
2013-03-21 02:40:00,68.2,63.5,29.85,West,266,0.0,3.0,85,0.00,,FEW,0.00,0.00,VWS V14.01,2013-03-21 06:40:00,
2013-03-21 02:41:00,68.2,63.5,29.85,West,266,0.0,3.0,85,0.00,,FEW,0.00,0.00,VWS V14.01,2013-03-21 06:41:00,
2013-03-21 02:43:00,68.2,63.5,29.85,WSW,257,2.0,2.0,85,0.00,,FEW,0.00,0.00,VWS V14.01,2013-03-21 06:43:00,
2013-03-21 02:44:00,68.2,63.5,29.85,WSW,257,0.0,2.0,85,0.00,,FEW,0.00,0.00,VWS V14.01,2013-03-21 06:44:00,
2013-03-21 02:47:00,68.2,63.5,29.85,West,278,2.0,2.0,85,0.00,,FEW,0.00,0.00,VWS V14.01,2013-03-21 06:47:00,
2013-03-21 02:48:00,68.1,63.4,29.85,West,260,0.0,3.0,85,0.00,,FEW,0.00,0.00,VWS V14.01,2013-03-21 06:48:00,
2013-03-21 02:49:00,68.1,63.4,29.85,WSW,257,1.0,3.0,85,0.00,,FEW,0.00,0.00,VWS V14.01,2013-03-21 06:49:00,
2013-03-21 02:50:00,68.1,63.4,29.85,West,271,1.0,3.0,85,0.00,,FEW,0.00,0.00,VWS V14.01,2013-03-21 06:50:00,
2013-03-21 02:52:00,68.1,63.4,29.85,West,271,2.0,2.0,85,0.00,,FEW,0.00,0.00,VWS V14.01,2013-03-21 06:52:00,
2013-03-21 02:54:00,68.1,63.4,29.85,West,267,2.0,2.0,85,0.00,,FEW,0.00,0.00,VWS V14.01,2013-03-21 06:54:00,
2013-03-21 02:57:00,68.1,63.4,29.85,West,263,0.0,2.0,85,0.00,,FEW,0.00,0.00,VWS V14.01,2013-03-21 06:57:00,
2013-03-21 02:59:00,68.1,63.4,29.85,West,261,0.0,2.0,85,0.00,,FEW,0.00,0.00,VWS V14.01,2013-03-21 06:59:00,
2013-03-21 03:00:00,68.1,63.4,29.85,WSW,252,1.0,3.0,85,0.00,,FEW,0.00,0.00,VWS V14.01,2013-03-21 07:00:00,
2013-03-21 03:02:00,68.1,63.4,29.84,WSW,250,2.0,2.0,85,0.00,,FEW,0.00,0.00,VWS V14.01,2013-03-21 07:02:00,
2013-03-21 03:04:00,68.1,63.4,29.84,SW,227,1.0,2.0,85,0.00,,FEW,0.00,0.00,VWS V14.01,2013-03-21 07:04:00,
2013-03-21 03:05:00,68.2,63.5,29.84,SW,217,1.0,3.0,85,0.00,,FEW,0.00,0.00,VWS V14.01,2013-03-21 07:05:00,
2013-03-21 03:07:00,68.2,63.9,29.84,SW,214,0.0,3.0,86,0.00,,FEW,0.00,0.00,VWS V14.01,2013-03-21 07:07:00,
2013-03-21 03:09:00,68.3,64.0,29.84,SSW,206,2.0,3.0,86,0.00,,FEW,0.00,0.00,VWS V14.01,2013-03-21 07:09:00,
2013-03-21 03:10:00,68.4,64.1,29.84,WSW,254,1.0,3.0,86,0.00,,FEW,0.00,0.00,VWS V14.01,2013-03-21 07:10:00,
2013-03-21 03:12:00,68.5,64.2,29.84,WSW,250,0.0,2.0,86,0.00,,FEW,0.00,0.00,VWS V14.01,2013-03-21 07:12:00,
2013-03-21 03:14:00,68.5,64.2,29.84,WSW,250,1.0,2.0,86,0.00,,FEW,0.00,0.00,VWS V14.01,2013-03-21 07:14:00,
2013-03-21 03:15:00,68.5,64.2,29.84,WSW,250,1.0,2.0,86,0.00,,FEW,0.00,0.00,VWS V14.01,2013-03-21 07:15:00,
2013-03-21 03:17:00,68.6,64.2,29.84,WSW,250,0.0,2.0,86,0.00,,FEW,0.00,0.00,VWS V14.01,2013-03-21 07:17:00,
2013-03-21 03:19:00,68.6,64.2,29.84,WSW,250,0.0,2.0,86,0.00,,FEW,0.00,0.00,VWS V14.01,2013-03-21 07:19:00,
2013-03-21 03:20:00,68.6,64.2,29.84,WSW,250,0.0,2.0,86,0.00,,FEW,0.00,0.00,VWS V14.01,2013-03-21 07:20:00,
2013-03-21 03:23:00,68.6,64.2,29.84,WSW,250,0.0,1.0,86,0.00,,FEW,0.00,0.00,VWS V14.01,2013-03-21 07:23:00,
2013-03-21 03:24:00,68.6,64.2,29.84,WSW,250,0.0,1.0,86,0.00,,FEW,0.00,0.00,VWS V14.01,2013-03-21 07:24:00,
2013-03-21 03:25:00,68.6,64.2,29.84,WSW,250,1.0,1.0,86,0.00,,FEW,0.00,0.00,VWS V14.01,2013-03-21 07:25:00,
2013-03-21 03:28:00,68.6,64.2,29.84,WSW,253,1.0,1.0,86,0.00,,FEW,0.00,0.00,VWS V14.01,2013-03-21 07:28:00,
2013-03-21 03:29:00,68.5,64.2,29.84,WSW,253,0.0,1.0,86,0.00,,FEW,0.00,0.00,VWS V14.01,2013-03-21 07:29:00,
2013-03-21 03:30:00,68.5,64.2,29.84,WSW,253,0.0,1.0,86,0.00,,FEW,0.00,0.00,VWS V14.01,2013-03-21 07:30:00,
2013-03-21 03:33:00,68.5,64.2,29.83,WSW,253,0.0,1.0,86,0.00,,FEW,0.00,0.00,VWS V14.01,2013-03-21 07:33:00,
2013-03-21 03:34:00,68.5,64.2,29.83,WSW,253,0.0,1.0,86,0.00,,FEW,0.00,0.00,VWS V14.01,2013-03-21 07:34:00,
2013-03-21 03:35:00,68.5,64.2,29.83,WSW,253,0.0,1.0,86,0.00,,FEW,0.00,0.00,VWS V14.01,2013-03-21 07:35:00,
2013-03-21 03:38:00,68.4,64.1,29.83,WSW,253,0.0,1.0,86,0.00,,FEW,0.00,0.00,VWS V14.01,2013-03-21 07:38:00,
2013-03-21 03:39:00,68.4,64.1,29.83,WSW,255,2.0,2.0,86,0.00,,FEW,0.00,0.00,VWS V14.01,2013-03-21 07:39:00,
2013-03-21 03:40:00,68.4,64.1,29.83,West,276,2.0,2.0,86,0.00,,FEW,0.00,0.00,VWS V14.01,2013-03-21 07:40:00,
2013-03-21 03:43:00,68.3,64.0,29.83,WNW,300,1.0,3.0,86,0.00,,FEW,0.00,0.00,VWS V14.01,2013-03-21 07:43:00,
2013-03-21 03:44:00,68.3,64.0,29.83,WNW,302,1.0,3.0,86,0.00,,FEW,0.00,0.00,VWS V14.01,2013-03-21 07:44:00,
2013-03-21 03:45:00,68.3,64.0,29.83,WNW,302,1.0,3.0,86,0.00,,FEW,0.00,0.00,VWS V14.01,2013-03-21 07:45:00,
2013-03-21 03:48:00,68.3,64.0,29.83,WNW,302,1.0,3.0,86,0.00,,FEW,0.00,0.00,VWS V14.01,2013-03-21 07:48:00,
2013-03-21 03:50:00,68.3,64.0,29.83,NW,306,2.0,3.0,86,0.00,,FEW,0.00,0.00,VWS V14.01,2013-03-21 07:50:00,
2013-03-21 03:53:00,68.3,64.3,29.83,NW,311,2.0,3.0,87,0.00,,FEW,0.00,0.00,VWS V14.01,2013-03-21 07:53:00,
2013-03-21 03:55:00,68.3,64.3,29.83,NW,318,1.0,3.0,87,0.00,,FEW,0.00,0.00,VWS V14.01,2013-03-21 07:55:00,
2013-03-21 03:56:00,68.3,64.3,29.83,NW,317,1.0,3.0,87,0.00,,FEW,0.00,0.00,VWS V14.01,2013-03-21 07:56:00,
2013-03-21 03:58:00,68.3,64.3,29.83,NNW,344,2.0,3.0,87,0.00,,FEW,0.00,0.00,VWS V14.01,2013-03-21 07:58:00,
2013-03-21 04:00:00,68.3,64.3,29.83,NNW,338,1.0,3.0,87,0.00,,FEW,0.00,0.00,VWS V14.01,2013-03-21 08:00:00,
2013-03-21 04:01:00,68.3,64.3,29.83,NNW,338,0.0,3.0,87,0.00,,FEW,0.00,0.00,VWS V14.01,2013-03-21 08:01:00,
2013-03-21 04:03:00,68.3,64.3,29.83,NW,306,0.0,2.0,87,0.00,,FEW,0.00,0.00,VWS V14.01,2013-03-21 08:03:00,
2013-03-21 04:05:00,68.3,64.3,29.83,NW,306,0.0,2.0,87,0.00,,FEW,0.00,0.00,VWS V14.01,2013-03-21 08:05:00,
2013-03-21 04:06:00,68.3,64.6,29.83,NW,306,0.0,2.0,88,0.00,,FEW,0.00,0.00,VWS V14.01,2013-03-21 08:06:00,
2013-03-21 04:08:00,68.4,64.7,29.83,NW,306,0.0,2.0,88,0.00,,FEW,0.00,0.00,VWS V14.01,2013-03-21 08:08:00,
2013-03-21 04:10:00,68.4,64.7,29.83,NW,306,0.0,2.0,88,0.00,,FEW,0.00,0.00,VWS V14.01,2013-03-21 08:10:00,
2013-03-21 04:11:00,68.4,64.7,29.83,NW,306,0.0,2.0,88,0.00,,FEW,0.00,0.00,VWS V14.01,2013-03-21 08:11:00,
2013-03-21 04:12:00,68.4,64.7,29.83,NW,306,0.0,2.0,88,0.00,,FEW,0.00,0.00,VWS V14.01,2013-03-21 08:12:00,
2013-03-21 04:14:00,68.4,64.7,29.83,NW,306,0.0,1.0,88,0.00,,FEW,0.00,0.00,VWS V14.01,2013-03-21 08:14:00,
2013-03-21 04:15:00,68.4,64.7,29.83,NW,306,0.0,1.0,88,0.00,,FEW,0.00,0.00,VWS V14.01,2013-03-21 08:15:00,
2013-03-21 04:16:00,68.5,64.8,29.83,WNW,289,1.0,2.0,88,0.00,,FEW,0.00,0.00,VWS V14.01,2013-03-21 08:16:00,
2013-03-21 04:17:00,68.5,64.8,29.83,WNW,289,1.0,2.0,88,0.00,,FEW,0.00,0.00,VWS V14.01,2013-03-21 08:17:00,
2013-03-21 04:19:00,68.5,65.1,29.83,West,281,0.0,2.0,89,0.00,,FEW,0.00,0.00,VWS V14.01,2013-03-21 08:19:00,
2013-03-21 04:20:00,68.6,65.2,29.83,West,275,1.0,2.0,89,0.00,,FEW,0.00,0.00,VWS V14.01,2013-03-21 08:20:00,
2013-03-21 04:22:00,68.6,65.2,29.83,West,275,0.0,1.0,89,0.00,,FEW,0.00,0.00,VWS V14.01,2013-03-21 08:22:00,
2013-03-21 04:24:00,68.6,65.2,29.83,West,275,1.0,2.0,89,0.00,,FEW,0.00,0.00,VWS V14.01,2013-03-21 08:24:00,
2013-03-21 04:25:00,68.7,65.3,29.83,West,261,1.0,2.0,89,0.00,,FEW,0.00,0.00,VWS V14.01,2013-03-21 08:25:00,
2013-03-21 04:27:00,68.7,65.3,29.83,West,261,0.0,2.0,89,0.00,,FEW,0.00,0.00,VWS V14.01,2013-03-21 08:27:00,
2013-03-21 04:29:00,68.7,65.3,29.83,West,261,0.0,2.0,89,0.00,,FEW,0.00,0.00,VWS V14.01,2013-03-21 08:29:00,
2013-03-21 04:30:00,68.7,65.3,29.83,West,261,0.0,2.0,89,0.00,,FEW,0.00,0.00,VWS V14.01,2013-03-21 08:30:00,
2013-03-21 04:32:00,68.7,65.3,29.83,West,261,1.0,1.0,89,0.00,,FEW,0.00,0.00,VWS V14.01,2013-03-21 08:32:00,
2013-03-21 04:34:00,68.7,65.3,29.83,West,261,0.0,1.0,89,0.00,,FEW,0.00,0.00,VWS V14.01,2013-03-21 08:34:00,
2013-03-21 04:36:00,68.7,65.3,29.83,West,261,0.0,2.0,89,0.00,,FEW,0.00,0.00,VWS V14.01,2013-03-21 08:36:00,
2013-03-21 04:37:00,68.7,65.3,29.83,West,261,1.0,2.0,89,0.00,,FEW,0.00,0.00,VWS V14.01,2013-03-21 08:37:00,
2013-03-21 04:39:00,68.7,65.7,29.83,West,261,1.0,2.0,90,0.00,,FEW,0.00,0.00,VWS V14.01,2013-03-21 08:39:00,
2013-03-21 04:40:00,68.7,65.7,29.83,West,261,0.0,2.0,90,0.00,,FEW,0.00,0.00,VWS V14.01,2013-03-21 08:40:00,
2013-03-21 04:41:00,68.7,65.7,29.83,West,261,1.0,2.0,90,0.00,,FEW,0.00,0.00,VWS V14.01,2013-03-21 08:41:00,
2013-03-21 04:42:00,68.7,65.7,29.83,West,261,0.0,0.0,90,0.00,,FEW,0.00,0.00,VWS V14.01,2013-03-21 08:42:00,
2013-03-21 04:43:00,68.7,65.7,29.83,West,261,0.0,0.0,90,0.00,,FEW,0.00,0.00,VWS V14.01,2013-03-21 08:43:00,
2013-03-21 04:44:00,68.7,65.7,29.83,West,261,0.0,0.0,90,0.00,,FEW,0.00,0.00,VWS V14.01,2013-03-21 08:44:00,
2013-03-21 04:46:00,68.7,65.7,29.83,West,261,0.0,0.0,90,0.00,,FEW,0.00,0.00,VWS V14.01,2013-03-21 08:46:00,
2013-03-21 04:47:00,68.7,65.7,29.83,West,261,0.0,0.0,90,0.00,,FEW,0.00,0.00,VWS V14.01,2013-03-21 08:47:00,
2013-03-21 04:48:00,68.7,65.7,29.83,West,261,0.0,0.0,90,0.00,,FEW,0.00,0.00,VWS V14.01,2013-03-21 08:48:00,
2013-03-21 04:49:00,68.6,65.6,29.83,West,261,0.0,0.0,90,0.00,,FEW,0.00,0.00,VWS V14.01,2013-03-21 08:49:00,
2013-03-21 04:50:00,68.6,65.6,29.83,West,261,0.0,1.0,90,0.00,,FEW,0.00,0.00,VWS V14.01,2013-03-21 08:50:00,
2013-03-21 04:52:00,68.6,65.6,29.83,West,261,1.0,1.0,90,0.00,,FEW,0.00,0.00,VWS V14.01,2013-03-21 08:52:00,
2013-03-21 04:53:00,68.6,65.6,29.83,West,261,0.0,1.0,90,0.00,,FEW,0.00,0.00,VWS V14.01,2013-03-21 08:53:00,
2013-03-21 04:54:00,68.6,65.6,29.83,West,261,1.0,1.0,90,0.00,,FEW,0.00,0.00,VWS V14.01,2013-03-21 08:54:00,
2013-03-21 04:57:00,68.6,65.6,29.83,West,261,0.0,1.0,90,0.00,,FEW,0.00,0.00,VWS V14.01,2013-03-21 08:57:00,
2013-03-21 04:58:00,68.6,65.6,29.83,West,261,0.0,1.0,90,0.00,,FEW,0.00,0.00,VWS V14.01,2013-03-21 08:58:00,
2013-03-21 04:59:00,68.6,65.6,29.83,West,261,2.0,2.0,90,0.00,,FEW,0.00,0.00,VWS V14.01,2013-03-21 08:59:00,
2013-03-21 05:00:00,68.6,65.9,29.83,West,261,2.0,2.0,91,0.00,,FEW,0.00,0.00,VWS V14.01,2013-03-21 09:00:00,
2013-03-21 05:02:00,68.6,65.6,29.83,West,261,1.0,2.0,90,0.00,,FEW,0.00,0.00,VWS V14.01,2013-03-21 09:02:00,
2013-03-21 05:03:00,68.6,65.9,29.83,West,261,1.0,2.0,91,0.00,,FEW,0.00,0.00,VWS V14.01,2013-03-21 09:03:00,
2013-03-21 05:05:00,68.6,65.9,29.83,WSW,258,3.0,3.0,91,0.00,,FEW,0.00,0.00,VWS V14.01,2013-03-21 09:05:00,
2013-03-21 05:07:00,68.6,65.9,29.83,WSW,254,3.0,3.0,91,0.00,,FEW,0.00,0.00,VWS V14.01,2013-03-21 09:07:00,
2013-03-21 05:08:00,68.6,65.9,29.83,WSW,254,1.0,3.0,91,0.00,,FEW,0.00,0.00,VWS V14.01,2013-03-21 09:08:00,
2013-03-21 05:10:00,68.6,65.9,29.83,West,259,1.0,3.0,91,0.00,,FEW,0.00,0.00,VWS V14.01,2013-03-21 09:10:00,
2013-03-21 05:12:00,68.6,65.9,29.83,West,264,3.0,3.0,91,0.00,,FEW,0.00,0.00,VWS V14.01,2013-03-21 09:12:00,
2013-03-21 05:13:00,68.6,65.9,29.83,West,265,1.0,2.0,91,0.00,,FEW,0.00,0.00,VWS V14.01,2013-03-21 09:13:00,
2013-03-21 05:15:00,68.6,65.9,29.83,West,263,2.0,2.0,91,0.00,,FEW,0.00,0.00,VWS V14.01,2013-03-21 09:15:00,
2013-03-21 05:17:00,68.6,65.9,29.84,West,261,0.0,3.0,91,0.00,,FEW,0.00,0.00,VWS V14.01,2013-03-21 09:17:00,
2013-03-21 05:18:00,68.6,65.9,29.84,West,271,1.0,3.0,91,0.00,,FEW,0.00,0.00,VWS V14.01,2013-03-21 09:18:00,
2013-03-21 05:20:00,68.6,65.9,29.84,West,271,0.0,3.0,91,0.00,,FEW,0.00,0.00,VWS V14.01,2013-03-21 09:20:00,
2013-03-21 05:22:00,68.6,65.9,29.84,WNW,291,2.0,2.0,91,0.00,,FEW,0.00,0.00,VWS V14.01,2013-03-21 09:22:00,
2013-03-21 05:23:00,68.6,65.9,29.84,WNW,291,0.0,2.0,91,0.00,,FEW,0.00,0.00,VWS V14.01,2013-03-21 09:23:00,
2013-03-21 05:25:00,68.6,65.9,29.84,WNW,299,1.0,2.0,91,0.00,,FEW,0.00,0.00,VWS V14.01,2013-03-21 09:25:00,
2013-03-21 05:27:00,68.6,65.9,29.84,WNW,299,1.0,2.0,91,0.00,,FEW,0.00,0.00,VWS V14.01,2013-03-21 09:27:00,
2013-03-21 05:28:00,68.6,65.9,29.84,WNW,299,1.0,2.0,91,0.00,,FEW,0.00,0.00,VWS V14.01,2013-03-21 09:28:00,
2013-03-21 05:29:00,68.6,65.9,29.84,WNW,299,2.0,2.0,91,0.00,,FEW,0.00,0.00,VWS V14.01,2013-03-21 09:29:00,
2013-03-21 05:30:00,68.5,65.8,29.84,NW,317,2.0,3.0,91,0.00,,FEW,0.00,0.00,VWS V14.01,2013-03-21 09:30:00,
2013-03-21 05:32:00,68.6,66.2,29.84,NW,318,4.0,4.0,92,0.00,,FEW,0.00,0.00,VWS V14.01,2013-03-21 09:32:00,
2013-03-21 05:33:00,68.6,66.2,29.84,NW,317,3.0,4.0,92,0.00,,FEW,0.00,0.00,VWS V14.01,2013-03-21 09:33:00,
2013-03-21 05:34:00,68.7,66.3,29.84,NW,315,1.0,4.0,92,0.00,,FEW,0.00,0.00,VWS V14.01,2013-03-21 09:34:00,
2013-03-21 05:35:00,68.8,66.4,29.84,WNW,301,3.0,4.0,92,0.00,,FEW,0.00,0.00,VWS V14.01,2013-03-21 09:35:00,
2013-03-21 05:38:00,68.9,66.5,29.84,NW,313,4.0,6.0,92,0.00,,FEW,0.00,0.00,VWS V14.01,2013-03-21 09:38:00,
2013-03-21 05:39:00,68.9,66.5,29.84,WNW,300,2.0,6.0,92,0.00,,FEW,0.00,0.00,VWS V14.01,2013-03-21 09:39:00,
2013-03-21 05:40:00,69.0,66.6,29.84,NW,319,2.0,6.0,92,0.00,,FEW,0.00,0.00,VWS V14.01,2013-03-21 09:40:00,
2013-03-21 05:43:00,69.0,66.6,29.84,WNW,294,3.0,3.0,92,0.00,,FEW,0.00,0.00,VWS V14.01,2013-03-21 09:43:00,
2013-03-21 05:44:00,69.0,66.6,29.84,WNW,300,2.0,3.0,92,0.00,,FEW,0.00,0.00,VWS V14.01,2013-03-21 09:44:00,
2013-03-21 05:45:00,69.0,66.6,29.84,WNW,302,4.0,4.0,92,0.00,,FEW,0.00,0.00,VWS V14.01,2013-03-21 09:45:00,
2013-03-21 05:48:00,69.1,66.7,29.84,WNW,296,1.0,4.0,92,0.00,,FEW,0.00,0.00,VWS V14.01,2013-03-21 09:48:00,
2013-03-21 05:49:00,69.1,66.7,29.84,WNW,299,1.0,4.0,92,0.00,,FEW,0.00,0.00,VWS V14.01,2013-03-21 09:49:00,
2013-03-21 05:50:00,69.1,66.7,29.84,WNW,299,0.0,4.0,92,0.00,,FEW,0.00,0.00,VWS V14.01,2013-03-21 09:50:00,
2013-03-21 05:53:00,69.1,66.7,29.84,WNW,303,0.0,3.0,92,0.00,,FEW,0.00,0.00,VWS V14.01,2013-03-21 09:53:00,
2013-03-21 05:54:00,69.0,66.6,29.84,WNW,303,1.0,3.0,92,0.00,,FEW,0.00,0.00,VWS V14.01,2013-03-21 09:54:00,
2013-03-21 05:55:00,69.0,66.6,29.84,WNW,298,2.0,4.0,92,0.00,,FEW,0.00,0.00,VWS V14.01,2013-03-21 09:55:00,
2013-03-21 05:58:00,69.1,66.7,29.84,NW,318,0.0,4.0,92,0.00,,FEW,0.00,0.00,VWS V14.01,2013-03-21 09:58:00,
2013-03-21 05:59:00,69.1,66.7,29.84,NW,318,0.0,4.0,92,0.00,,FEW,0.00,0.00,VWS V14.01,2013-03-21 09:59:00,
2013-03-21 06:00:00,69.0,66.6,29.84,NW,318,1.0,4.0,92,0.00,,FEW,0.00,0.00,VWS V14.01,2013-03-21 10:00:00,
2013-03-21 06:03:00,69.0,66.6,29.84,WNW,300,2.0,5.0,92,0.00,,FEW,0.00,0.00,VWS V14.01,2013-03-21 10:03:00,
2013-03-21 06:04:00,69.0,66.6,29.84,WNW,300,1.0,5.0,92,0.00,,FEW,0.00,0.00,VWS V14.01,2013-03-21 10:04:00,
2013-03-21 06:05:00,69.0,66.6,29.84,NW,313,2.0,5.0,92,0.00,,FEW,0.00,0.00,VWS V14.01,2013-03-21 10:05:00,
2013-03-21 06:09:00,69.0,66.6,29.84,NW,311,3.0,5.0,92,0.00,,FEW,0.00,0.00,VWS V14.01,2013-03-21 10:09:00,
2013-03-21 06:10:00,69.1,66.7,29.84,WNW,300,4.0,5.0,92,0.00,,FEW,0.00,0.00,VWS V14.01,2013-03-21 10:10:00,
2013-03-21 06:14:00,69.0,66.6,29.84,NNW,332,2.0,4.0,92,0.00,,FEW,0.00,0.00,VWS V14.01,2013-03-21 10:14:00,
2013-03-21 06:15:00,69.1,66.7,29.84,NW,323,1.0,4.0,92,0.00,,FEW,0.00,0.00,VWS V14.01,2013-03-21 10:15:00,
2013-03-21 06:19:00,69.1,66.7,29.85,NW,325,2.0,7.0,92,0.00,,FEW,0.00,0.00,VWS V14.01,2013-03-21 10:19:00,
2013-03-21 06:20:00,69.2,66.8,29.85,North,5,3.0,7.0,92,0.00,,FEW,0.00,0.00,VWS V14.01,2013-03-21 10:20:00,
2013-03-21 06:21:00,69.2,66.8,29.85,North,5,3.0,7.0,92,0.00,,FEW,0.00,0.00,VWS V14.01,2013-03-21 10:21:00,
2013-03-21 06:24:00,69.4,67.0,29.85,NNW,331,6.0,8.0,92,0.00,,FEW,0.00,0.00,VWS V14.01,2013-03-21 10:24:00,
2013-03-21 06:25:00,69.4,67.0,29.85,NW,325,4.0,8.0,92,0.00,,FEW,0.00,0.00,VWS V14.01,2013-03-21 10:25:00,
2013-03-21 06:26:00,69.4,67.0,29.85,NNW,348,5.0,8.0,92,0.00,,FEW,0.00,0.00,VWS V14.01,2013-03-21 10:26:00,
2013-03-21 06:29:00,69.5,67.1,29.85,NNW,347,5.0,8.0,92,0.00,,FEW,0.00,0.00,VWS V14.01,2013-03-21 10:29:00,
2013-03-21 06:30:00,69.5,67.1,29.85,NW,322,3.0,8.0,92,0.00,,FEW,0.00,0.00,VWS V14.01,2013-03-21 10:30:00,
2013-03-21 06:31:00,69.5,67.1,29.85,NW,309,4.0,8.0,92,0.00,,FEW,0.00,0.00,VWS V14.01,2013-03-21 10:31:00,
2013-03-21 06:34:00,69.5,67.1,29.85,NNW,344,5.0,6.0,92,0.00,,FEW,0.00,0.00,VWS V14.01,2013-03-21 10:34:00,
2013-03-21 06:35:00,69.5,67.1,29.85,NNW,342,4.0,6.0,92,0.00,,FEW,0.00,0.00,VWS V14.01,2013-03-21 10:35:00,
2013-03-21 06:36:00,69.5,67.1,29.85,North,9,4.0,8.0,92,0.00,,FEW,0.00,0.00,VWS V14.01,2013-03-21 10:36:00,
2013-03-21 06:40:00,69.5,67.1,29.85,NNW,333,4.0,8.0,92,0.00,,FEW,0.00,0.00,VWS V14.01,2013-03-21 10:40:00,
2013-03-21 06:41:00,69.4,67.0,29.85,NNW,336,5.0,8.0,92,0.00,,FEW,0.00,0.00,VWS V14.01,2013-03-21 10:41:00,
2013-03-21 06:45:00,69.4,67.0,29.85,NNW,343,8.0,8.0,92,0.00,,FEW,0.00,0.00,VWS V14.01,2013-03-21 10:45:00,
2013-03-21 06:46:00,69.4,67.0,29.86,North,5,4.0,8.0,92,0.00,,FEW,0.00,0.00,VWS V14.01,2013-03-21 10:46:00,
2013-03-21 06:47:00,69.4,67.0,29.86,NNW,348,3.0,8.0,92,0.00,,FEW,0.00,0.00,VWS V14.01,2013-03-21 10:47:00,
2013-03-21 06:50:00,69.4,67.0,29.86,NNW,333,3.0,8.0,92,0.00,,FEW,0.00,0.00,VWS V14.01,2013-03-21 10:50:00,
2013-03-21 06:52:00,69.3,66.9,29.86,North,355,4.0,8.0,92,0.00,,FEW,0.00,0.00,VWS V14.01,2013-03-21 10:52:00,
2013-03-21 06:55:00,69.3,66.9,29.86,NNW,343,5.0,6.0,92,0.00,,FEW,0.00,0.00,VWS V14.01,2013-03-21 10:55:00,
2013-03-21 06:57:00,69.2,66.5,29.86,North,349,6.0,6.0,91,0.00,,FEW,0.00,0.00,VWS V14.01,2013-03-21 10:57:00,
2013-03-21 07:00:00,69.2,66.5,29.86,NW,319,9.0,9.0,91,0.00,,FEW,0.00,0.00,VWS V14.01,2013-03-21 11:00:00,
2013-03-21 07:02:00,69.2,66.5,29.87,NNW,343,5.0,9.0,91,0.00,,FEW,0.00,0.00,VWS V14.01,2013-03-21 11:02:00,
2013-03-21 07:05:00,69.2,66.5,29.87,NNW,340,5.0,8.0,91,0.00,,FEW,0.00,0.00,VWS V14.01,2013-03-21 11:05:00,
2013-03-21 07:07:00,69.2,66.5,29.87,North,360,3.0,8.0,91,0.00,,FEW,0.00,0.00,VWS V14.01,2013-03-21 11:07:00,
2013-03-21 07:08:00,69.2,66.5,29.87,NW,319,6.0,11.0,91,0.00,,FEW,0.00,0.00,VWS V14.01,2013-03-21 11:08:00,
2013-03-21 07:10:00,69.2,66.5,29.87,North,360,2.0,11.0,91,0.00,,FEW,0.00,0.00,VWS V14.01,2013-03-21 11:10:00,
2013-03-21 07:12:00,69.2,66.5,29.87,North,11,4.0,4.0,91,0.00,,FEW,0.00,0.00,VWS V14.01,2013-03-21 11:12:00,
2013-03-21 07:13:00,69.2,66.5,29.87,NNE,26,7.0,7.0,91,0.00,,FEW,0.00,0.00,VWS V14.01,2013-03-21 11:13:00,
2013-03-21 07:15:00,69.2,66.5,29.87,NNW,338,7.0,7.0,91,0.00,,FEW,0.00,0.00,VWS V14.01,2013-03-21 11:15:00,
2013-03-21 07:16:00,69.2,66.5,29.87,North,351,3.0,7.0,91,0.00,,FEW,0.00,0.00,VWS V14.01,2013-03-21 11:16:00,
2013-03-21 07:17:00,69.2,66.5,29.88,North,9,6.0,9.0,91,0.00,,FEW,0.00,0.00,VWS V14.01,2013-03-21 11:17:00,
2013-03-21 07:18:00,69.2,66.5,29.88,North,350,8.0,9.0,91,0.00,,FEW,0.00,0.00,VWS V14.01,2013-03-21 11:18:00,
2013-03-21 07:20:00,69.1,66.4,29.88,North,355,4.0,9.0,91,0.00,,FEW,0.00,0.00,VWS V14.01,2013-03-21 11:20:00,
2013-03-21 07:21:00,69.1,66.4,29.88,North,360,7.0,9.0,91,0.00,,FEW,0.00,0.00,VWS V14.01,2013-03-21 11:21:00,
2013-03-21 07:22:00,69.1,66.4,29.88,NE,37,4.0,7.0,91,0.00,,FEW,0.00,0.00,VWS V14.01,2013-03-21 11:22:00,
2013-03-21 07:23:00,69.1,66.4,29.88,NNW,335,6.0,7.0,91,0.00,,FEW,0.00,0.00,VWS V14.01,2013-03-21 11:23:00,
2013-03-21 07:25:00,69.1,66.4,29.88,NNW,342,7.0,8.0,91,0.00,,FEW,0.00,0.00,VWS V14.01,2013-03-21 11:25:00,
2013-03-21 07:26:00,69.1,66.4,29.88,NNW,342,4.0,8.0,91,0.00,,FEW,0.00,0.00,VWS V14.01,2013-03-21 11:26:00,
2013-03-21 07:27:00,69.1,66.4,29.88,North,350,3.0,8.0,91,0.00,,FEW,0.00,0.00,VWS V14.01,2013-03-21 11:27:00,
2013-03-21 07:28:00,69.1,66.4,29.88,North,5,5.0,8.0,91,0.00,,FEW,0.00,5.00,VWS V14.01,2013-03-21 11:28:00,
2013-03-21 07:30:00,69.0,66.3,29.88,North,5,4.0,8.0,91,0.00,,FEW,0.00,5.00,VWS V14.01,2013-03-21 11:30:00,
2013-03-21 07:31:00,69.0,66.3,29.88,NNW,329,3.0,8.0,91,0.00,,FEW,0.00,5.00,VWS V14.01,2013-03-21 11:31:00,
2013-03-21 07:32:00,68.9,65.8,29.88,North,355,9.0,9.0,90,0.00,,FEW,0.00,7.00,VWS V14.01,2013-03-21 11:32:00,
2013-03-21 07:33:00,69.0,65.9,29.88,NNW,342,6.0,9.0,90,0.00,,FEW,0.00,7.00,VWS V14.01,2013-03-21 11:33:00,
2013-03-21 07:35:00,68.9,65.8,29.88,NNE,24,8.0,9.0,90,0.00,,FEW,0.00,9.00,VWS V14.01,2013-03-21 11:35:00,
2013-03-21 07:36:00,68.9,65.8,29.88,NNW,344,7.0,9.0,90,0.00,,FEW,0.00,9.00,VWS V14.01,2013-03-21 11:36:00,
2013-03-21 07:37:00,68.9,65.8,29.88,NNW,348,6.0,10.0,90,0.00,,FEW,0.00,11.00,VWS V14.01,2013-03-21 11:37:00,
2013-03-21 07:38:00,68.9,65.8,29.88,North,5,5.0,10.0,90,0.00,,FEW,0.00,11.00,VWS V14.01,2013-03-21 11:38:00,
2013-03-21 07:40:00,68.9,65.8,29.88,NE,46,5.0,10.0,90,0.00,,FEW,0.00,19.00,VWS V14.01,2013-03-21 11:40:00,
2013-03-21 07:41:00,68.9,65.8,29.88,NNE,24,5.0,10.0,90,0.00,,FEW,0.00,14.00,VWS V14.01,2013-03-21 11:41:00,
2013-03-21 07:42:00,68.8,65.8,29.88,NNW,333,5.0,10.0,90,0.00,,FEW,0.00,19.00,VWS V14.01,2013-03-21 11:42:00,
2013-03-21 07:43:00,68.8,65.8,29.88,NNW,347,7.0,7.0,90,0.00,,FEW,0.00,21.00,VWS V14.01,2013-03-21 11:43:00,
2013-03-21 07:47:00,68.9,65.8,29.88,NNW,337,5.0,9.0,90,0.00,,FEW,0.00,23.00,VWS V14.01,2013-03-21 11:47:00,
2013-03-21 07:48:00,68.8,65.8,29.88,North,5,6.0,9.0,90,0.00,,FEW,0.00,28.00,VWS V14.01,2013-03-21 11:48:00,
2013-03-21 07:50:00,68.9,65.8,29.88,NNE,18,7.0,10.0,90,0.00,,FEW,0.00,30.00,VWS V14.01,2013-03-21 11:50:00,
2013-03-21 07:52:00,68.9,65.8,29.88,North,360,6.0,10.0,90,0.00,,FEW,0.00,30.00,VWS V14.01,2013-03-21 11:52:00,
2013-03-21 07:53:00,68.9,65.8,29.88,NNW,338,12.0,12.0,90,0.00,,FEW,0.00,30.00,VWS V14.01,2013-03-21 11:53:00,
2013-03-21 07:54:00,68.9,65.8,29.88,NNW,346,7.0,12.0,90,0.00,,FEW,0.00,28.00,VWS V14.01,2013-03-21 11:54:00,
2013-03-21 07:57:00,69.0,65.9,29.88,NNW,341,5.0,12.0,90,0.00,,FEW,0.00,26.00,VWS V14.01,2013-03-21 11:57:00,
2013-03-21 07:58:00,69.0,65.9,29.88,NNE,15,8.0,12.0,90,0.00,,FEW,0.00,30.00,VWS V14.01,2013-03-21 11:58:00,
2013-03-21 07:59:00,68.9,65.8,29.88,NNW,336,5.0,12.0,90,0.00,,FEW,0.00,32.00,VWS V14.01,2013-03-21 11:59:00,
2013-03-21 08:00:00,69.0,65.9,29.89,NNE,13,6.0,12.0,90,0.00,,FEW,0.00,33.00,VWS V14.01,2013-03-21 12:00:00,
2013-03-21 08:02:00,69.0,65.9,29.89,NNE,22,6.0,6.0,90,0.00,,FEW,0.00,33.00,VWS V14.01,2013-03-21 12:02:00,
2013-03-21 08:04:00,69.0,65.9,29.89,North,360,6.0,8.0,90,0.00,,FEW,0.00,39.00,VWS V14.01,2013-03-21 12:04:00,
2013-03-21 08:07:00,69.1,66.1,29.89,NNE,32,6.0,9.0,90,0.00,,FEW,0.00,65.00,VWS V14.01,2013-03-21 12:07:00,
2013-03-21 08:08:00,69.1,66.1,29.89,NNE,13,6.0,9.0,90,0.00,,FEW,0.00,65.00,VWS V14.01,2013-03-21 12:08:00,
2013-03-21 08:09:00,69.1,66.1,29.89,NNE,17,5.0,9.0,90,0.00,,FEW,0.00,51.00,VWS V14.01,2013-03-21 12:09:00,
2013-03-21 08:10:00,69.0,65.9,29.89,NNE,30,9.0,9.0,90,0.00,,FEW,0.00,47.00,VWS V14.01,2013-03-21 12:10:00,
2013-03-21 08:12:00,69.0,65.9,29.89,NE,38,5.0,9.0,90,0.00,,FEW,0.00,47.00,VWS V14.01,2013-03-21 12:12:00,
2013-03-21 08:13:00,69.0,65.9,29.89,NNE,20,4.0,9.0,90,0.00,,FEW,0.00,49.00,VWS V14.01,2013-03-21 12:13:00,
2013-03-21 08:14:00,68.9,65.8,29.89,NNE,32,8.0,9.0,90,0.00,,FEW,0.00,58.00,VWS V14.01,2013-03-21 12:14:00,
2013-03-21 08:18:00,69.0,65.9,29.90,NNE,15,5.0,9.0,90,0.00,,FEW,0.00,109.00,VWS V14.01,2013-03-21 12:18:00,
2013-03-21 08:19:00,69.0,65.9,29.90,North,11,8.0,9.0,90,0.00,,FEW,0.00,105.00,VWS V14.01,2013-03-21 12:19:00,
2013-03-21 08:20:00,69.0,65.9,29.90,NE,36,2.0,10.0,90,0.00,,FEW,0.00,98.00,VWS V14.01,2013-03-21 12:20:00,
2013-03-21 08:23:00,69.0,65.9,29.90,North,355,7.0,9.0,90,0.00,,FEW,0.00,83.00,VWS V14.01,2013-03-21 12:23:00,
2013-03-21 08:24:00,69.1,66.1,29.90,North,360,5.0,9.0,90,0.00,,FEW,0.00,72.00,VWS V14.01,2013-03-21 12:24:00,
2013-03-21 08:28:00,69.0,65.9,29.90,North,5,4.0,9.0,90,0.00,,FEW,0.00,72.00,VWS V14.01,2013-03-21 12:28:00,
2013-03-21 08:29:00,69.0,65.9,29.90,NE,35,4.0,9.0,90,0.00,,FEW,0.00,72.00,VWS V14.01,2013-03-21 12:29:00,
2013-03-21 08:30:00,69.0,65.9,29.90,NW,325,6.0,10.0,90,0.00,,FEW,0.00,69.00,VWS V14.01,2013-03-21 12:30:00,
2013-03-21 08:33:00,68.9,65.8,29.90,NNE,13,5.0,7.0,90,0.00,,FEW,0.00,79.00,VWS V14.01,2013-03-21 12:33:00,
2013-03-21 08:34:00,68.9,65.8,29.90,North,355,3.0,7.0,90,0.00,,FEW,0.00,81.00,VWS V14.01,2013-03-21 12:34:00,
2013-03-21 08:38:00,68.8,65.8,29.90,North,360,2.0,7.0,90,0.00,,FEW,0.00,155.00,VWS V14.01,2013-03-21 12:38:00,
2013-03-21 08:39:00,68.9,65.8,29.90,North,5,8.0,8.0,90,0.00,,FEW,0.00,142.00,VWS V14.01,2013-03-21 12:39:00,
2013-03-21 08:40:00,68.9,65.8,29.90,North,355,5.0,8.0,90,0.00,,FEW,0.00,158.00,VWS V14.01,2013-03-21 12:40:00,
2013-03-21 08:43:00,68.9,65.8,29.90,NNE,13,2.0,7.0,90,0.00,,FEW,0.00,120.00,VWS V14.01,2013-03-21 12:43:00,
2013-03-21 08:44:00,69.0,65.9,29.90,North,355,5.0,8.0,90,0.00,,FEW,0.00,125.00,VWS V14.01,2013-03-21 12:44:00,
2013-03-21 08:45:00,69.0,65.9,29.90,NE,34,4.0,8.0,90,0.00,,FEW,0.00,153.00,VWS V14.01,2013-03-21 12:45:00,
2013-03-21 08:48:00,69.1,66.1,29.91,North,5,4.0,8.0,90,0.00,,FEW,0.00,137.00,VWS V14.01,2013-03-21 12:48:00,
2013-03-21 08:49:00,69.1,66.1,29.91,North,5,5.0,8.0,90,0.00,,FEW,0.00,130.00,VWS V14.01,2013-03-21 12:49:00,
2013-03-21 08:50:00,69.1,66.1,29.91,NNW,348,5.0,8.0,90,0.00,,FEW,0.00,130.00,VWS V14.01,2013-03-21 12:50:00,
2013-03-21 08:53:00,69.2,66.2,29.91,NE,44,4.0,8.0,90,0.00,,FEW,0.00,114.00,VWS V14.01,2013-03-21 12:53:00,
2013-03-21 08:55:00,69.3,65.9,29.91,North,5,3.0,8.0,89,0.00,,FEW,0.00,183.00,VWS V14.01,2013-03-21 12:55:00,
2013-03-21 08:56:00,69.3,65.9,29.91,North,355,7.0,8.0,89,0.00,,FEW,0.00,251.00,VWS V14.01,2013-03-21 12:56:00,
2013-03-21 08:59:00,69.3,65.9,29.91,North,5,6.0,8.0,89,0.00,,FEW,0.00,239.00,VWS V14.01,2013-03-21 12:59:00,
2013-03-21 09:00:00,69.4,66.0,29.91,NNE,13,5.0,8.0,89,0.00,,FEW,0.00,239.00,VWS V14.01,2013-03-21 13:00:00,
2013-03-21 09:02:00,69.4,66.0,29.91,NNE,16,4.0,8.0,89,0.00,,FEW,0.00,200.00,VWS V14.01,2013-03-21 13:02:00,
2013-03-21 09:04:00,69.6,66.2,29.91,NNE,26,5.0,8.0,89,0.00,,FEW,0.00,221.00,VWS V14.01,2013-03-21 13:04:00,
2013-03-21 09:05:00,69.7,66.3,29.91,NE,46,5.0,8.0,89,0.00,,FEW,0.00,272.00,VWS V14.01,2013-03-21 13:05:00,
2013-03-21 09:07:00,70.0,66.3,29.91,NNE,17,6.0,9.0,88,0.00,,FEW,0.00,272.00,VWS V14.01,2013-03-21 13:07:00,
2013-03-21 09:09:00,70.1,66.4,29.91,NNW,333,6.0,9.0,88,0.00,,FEW,0.00,308.00,VWS V14.01,2013-03-21 13:09:00,
2013-03-21 09:10:00,70.2,66.5,29.91,North,355,3.0,9.0,88,0.00,,FEW,0.00,149.00,VWS V14.01,2013-03-21 13:10:00,
2013-03-21 09:12:00,70.3,66.6,29.91,NNW,344,3.0,3.0,88,0.00,,FEW,0.00,116.00,VWS V14.01,2013-03-21 13:12:00,
2013-03-21 09:14:00,70.3,66.2,29.91,North,355,6.0,7.0,87,0.00,,FEW,0.00,79.00,VWS V14.01,2013-03-21 13:14:00,
2013-03-21 09:15:00,70.3,66.2,29.91,North,349,6.0,7.0,87,0.00,,FEW,0.00,79.00,VWS V14.01,2013-03-21 13:15:00,
2013-03-21 09:17:00,70.1,66.1,29.92,North,351,5.0,7.0,87,0.00,,FEW,0.00,76.00,VWS V14.01,2013-03-21 13:17:00,
2013-03-21 09:19:00,70.0,66.0,29.92,NE,36,5.0,7.0,87,0.00,,FEW,0.00,77.00,VWS V14.01,2013-03-21 13:19:00,
2013-03-21 09:20:00,70.0,65.6,29.92,NNE,12,4.0,8.0,86,0.00,,FEW,0.00,65.00,VWS V14.01,2013-03-21 13:20:00,
2013-03-21 09:22:00,69.9,65.5,29.92,NNE,17,3.0,7.0,86,0.00,,FEW,0.00,63.00,VWS V14.01,2013-03-21 13:22:00,
2013-03-21 09:24:00,69.8,65.4,29.92,NNW,339,5.0,8.0,86,0.00,,FEW,0.00,86.00,VWS V14.01,2013-03-21 13:24:00,
2013-03-21 09:25:00,69.8,65.4,29.92,NNE,16,3.0,8.0,86,0.00,,FEW,0.00,91.00,VWS V14.01,2013-03-21 13:25:00,
2013-03-21 09:27:00,69.7,65.3,29.92,NNW,339,6.0,8.0,86,0.00,,FEW,0.00,111.00,VWS V14.01,2013-03-21 13:27:00,
2013-03-21 09:29:00,69.6,65.2,29.92,NNE,24,4.0,9.0,86,0.00,,FEW,0.00,127.00,VWS V14.01,2013-03-21 13:29:00,
2013-03-21 09:30:00,69.5,65.1,29.92,NNE,13,5.0,9.0,86,0.00,,FEW,0.00,141.00,VWS V14.01,2013-03-21 13:30:00,
2013-03-21 09:32:00,69.6,65.2,29.93,North,360,5.0,5.0,86,0.00,,FEW,0.00,207.00,VWS V14.01,2013-03-21 13:32:00,
2013-03-21 09:35:00,69.7,65.3,29.93,NE,45,3.0,8.0,86,0.00,,FEW,0.00,188.00,VWS V14.01,2013-03-21 13:35:00,
2013-03-21 09:37:00,70.0,65.6,29.93,North,5,4.0,8.0,86,0.00,,FEW,0.00,216.00,VWS V14.01,2013-03-21 13:37:00,
2013-03-21 09:40:00,70.1,65.7,29.93,NNW,338,3.0,8.0,86,0.00,,FEW,0.00,236.00,VWS V14.01,2013-03-21 13:40:00,
2013-03-21 09:43:00,70.6,65.9,29.93,North,360,3.0,3.0,85,0.00,,FEW,0.00,452.00,VWS V14.01,2013-03-21 13:43:00,
2013-03-21 09:45:00,70.9,66.2,29.93,North,355,3.0,5.0,85,0.00,,FEW,0.00,506.00,VWS V14.01,2013-03-21 13:45:00,
2013-03-21 09:48:00,71.6,66.5,29.92,NNW,346,7.0,8.0,84,0.00,,FEW,0.00,573.00,VWS V14.01,2013-03-21 13:48:00,
2013-03-21 09:50:00,71.7,65.9,29.92,NNW,347,7.0,8.0,82,0.00,,FEW,0.00,206.00,VWS V14.01,2013-03-21 13:50:00,
2013-03-21 09:53:00,71.6,65.8,29.92,NE,55,7.0,9.0,82,0.00,,FEW,0.00,239.00,VWS V14.01,2013-03-21 13:53:00,
2013-03-21 09:55:00,71.5,65.7,29.92,NNE,17,5.0,9.0,82,0.00,,FEW,0.00,309.00,VWS V14.01,2013-03-21 13:55:00,
2013-03-21 09:56:00,71.6,65.8,29.92,NNE,15,5.0,9.0,82,0.00,,FEW,0.00,279.00,VWS V14.01,2013-03-21 13:56:00,
2013-03-21 09:58:00,71.6,65.8,29.92,NNE,28,6.0,9.0,82,0.00,,FEW,0.00,265.00,VWS V14.01,2013-03-21 13:58:00,
2013-03-21 10:00:00,71.5,65.7,29.92,NE,45,3.0,9.0,82,0.00,,FEW,0.00,313.00,VWS V14.01,2013-03-21 14:00:00,
2013-03-21 10:01:00,71.4,65.6,29.93,NE,42,3.0,9.0,82,0.00,,FEW,0.00,313.00,VWS V14.01,2013-03-21 14:01:00,
2013-03-21 10:03:00,71.3,65.5,29.93,NE,38,4.0,8.0,82,0.00,,FEW,0.00,346.00,VWS V14.01,2013-03-21 14:03:00,
2013-03-21 10:05:00,71.1,65.3,29.93,NE,37,3.0,9.0,82,0.00,,FEW,0.00,381.00,VWS V14.01,2013-03-21 14:05:00,
2013-03-21 10:06:00,71.1,65.0,29.93,NE,35,6.0,9.0,81,0.00,,FEW,0.00,381.00,VWS V14.01,2013-03-21 14:06:00,
2013-03-21 10:08:00,71.2,65.1,29.93,NNW,341,5.0,9.0,81,0.00,,FEW,0.00,408.00,VWS V14.01,2013-03-21 14:08:00,
2013-03-21 10:10:00,71.4,65.3,29.93,NNE,24,7.0,11.0,81,0.00,,FEW,0.00,677.00,VWS V14.01,2013-03-21 14:10:00,
2013-03-21 10:11:00,71.4,65.3,29.93,NNE,31,8.0,11.0,81,0.00,,FEW,0.00,677.00,VWS V14.01,2013-03-21 14:11:00,
2013-03-21 10:13:00,71.4,64.9,29.93,NNE,26,6.0,8.0,80,0.00,,FEW,0.00,355.00,VWS V14.01,2013-03-21 14:13:00,
2013-03-21 10:15:00,71.6,64.8,29.93,NNE,26,6.0,9.0,79,0.00,,FEW,0.00,355.00,VWS V14.01,2013-03-21 14:15:00,
2013-03-21 10:16:00,71.7,64.8,29.93,NNE,21,8.0,9.0,79,0.00,,FEW,0.00,355.00,VWS V14.01,2013-03-21 14:16:00,
2013-03-21 10:17:00,71.7,64.8,29.92,NE,38,6.0,9.0,79,0.00,,FEW,0.00,355.00,VWS V14.01,2013-03-21 14:17:00,
2013-03-21 10:18:00,71.7,64.5,29.92,NE,38,3.0,9.0,78,0.00,,FEW,0.00,294.00,VWS V14.01,2013-03-21 14:18:00,
2013-03-21 10:20:00,71.7,64.8,29.92,NE,38,5.0,9.0,79,0.00,,FEW,0.00,297.00,VWS V14.01,2013-03-21 14:20:00,
2013-03-21 10:21:00,71.7,64.8,29.92,NE,36,5.0,9.0,79,0.00,,FEW,0.00,297.00,VWS V14.01,2013-03-21 14:21:00,
2013-03-21 10:22:00,71.8,64.9,29.92,NNE,30,6.0,9.0,79,0.00,,FEW,0.00,297.00,VWS V14.01,2013-03-21 14:22:00,
2013-03-21 10:23:00,71.7,64.8,29.92,NE,55,5.0,9.0,79,0.00,,FEW,0.00,360.00,VWS V14.01,2013-03-21 14:23:00,
2013-03-21 10:26:00,71.6,64.8,29.92,NE,48,3.0,9.0,79,0.00,,FEW,0.00,348.00,VWS V14.01,2013-03-21 14:26:00,
2013-03-21 10:27:00,71.6,64.8,29.92,NE,36,8.0,9.0,79,0.00,,FEW,0.00,366.00,VWS V14.01,2013-03-21 14:27:00,
2013-03-21 10:28:00,71.6,64.8,29.92,NNE,33,7.0,9.0,79,0.00,,FEW,0.00,325.00,VWS V14.01,2013-03-21 14:28:00,
2013-03-21 10:30:00,71.7,64.8,29.93,NE,46,4.0,10.0,79,0.00,,FEW,0.00,429.00,VWS V14.01,2013-03-21 14:30:00,
2013-03-21 10:31:00,71.5,64.7,29.92,ENE,65,3.0,10.0,79,0.00,,FEW,0.00,429.00,VWS V14.01,2013-03-21 14:31:00,
2013-03-21 10:32:00,71.8,64.9,29.93,NNE,19,3.0,4.0,79,0.00,,FEW,0.00,429.00,VWS V14.01,2013-03-21 14:32:00,
2013-03-21 10:33:00,72.0,64.4,29.93,ENE,72,2.0,9.0,77,0.00,,FEW,0.00,429.00,VWS V14.01,2013-03-21 14:33:00,
2013-03-21 10:36:00,72.0,64.4,29.93,North,355,4.0,9.0,77,0.00,,FEW,0.00,274.00,VWS V14.01,2013-03-21 14:36:00,
2013-03-21 10:37:00,72.0,64.8,29.93,NE,52,3.0,9.0,78,0.00,,FEW,0.00,294.00,VWS V14.01,2013-03-21 14:37:00,
2013-03-21 10:39:00,71.8,64.2,29.93,NNE,22,3.0,10.0,77,0.00,,FEW,0.00,244.00,VWS V14.01,2013-03-21 14:39:00,
2013-03-21 10:40:00,71.4,63.8,29.93,NNE,26,6.0,10.0,77,0.00,,FEW,0.00,283.00,VWS V14.01,2013-03-21 14:40:00,
2013-03-21 10:41:00,71.5,63.9,29.93,NE,36,6.0,10.0,77,0.00,,FEW,0.00,211.00,VWS V14.01,2013-03-21 14:41:00,
2013-03-21 10:42:00,71.4,63.8,29.93,NE,37,4.0,10.0,77,0.00,,FEW,0.00,283.00,VWS V14.01,2013-03-21 14:42:00,
2013-03-21 10:44:00,71.2,64.0,29.93,ENE,71,4.0,8.0,78,0.00,,FEW,0.00,710.00,VWS V14.01,2013-03-21 14:44:00,
2013-03-21 10:46:00,71.5,64.3,29.93,NNE,22,3.0,8.0,78,0.00,,FEW,0.00,686.00,VWS V14.01,2013-03-21 14:46:00,
2013-03-21 10:47:00,71.5,64.3,29.93,NNE,33,5.0,9.0,78,0.00,,FEW,0.00,686.00,VWS V14.01,2013-03-21 14:47:00,
2013-03-21 10:49:00,71.7,64.8,29.93,NNE,32,2.0,9.0,79,0.00,,FEW,0.00,700.00,VWS V14.01,2013-03-21 14:49:00,
2013-03-21 10:50:00,72.2,65.3,29.93,NE,34,4.0,9.0,79,0.00,,FEW,0.00,684.00,VWS V14.01,2013-03-21 14:50:00,
2013-03-21 10:51:00,72.0,65.1,29.93,NE,37,3.0,9.0,79,0.00,,FEW,0.00,684.00,VWS V14.01,2013-03-21 14:51:00,
2013-03-21 10:52:00,72.1,65.2,29.93,NNE,24,6.0,9.0,79,0.00,,FEW,0.00,684.00,VWS V14.01,2013-03-21 14:52:00,
2013-03-21 10:54:00,72.3,65.1,29.93,NE,35,6.0,7.0,78,0.00,,FEW,0.00,677.00,VWS V14.01,2013-03-21 14:54:00,
2013-03-21 10:56:00,72.2,64.2,29.93,NNE,22,4.0,8.0,76,0.00,,FEW,0.00,680.00,VWS V14.01,2013-03-21 14:56:00,
2013-03-21 10:57:00,72.2,64.2,29.93,NE,46,7.0,8.0,76,0.00,,FEW,0.00,680.00,VWS V14.01,2013-03-21 14:57:00,
2013-03-21 10:59:00,72.1,64.1,29.93,ENE,59,5.0,8.0,76,0.00,,FEW,0.00,693.00,VWS V14.01,2013-03-21 14:59:00,
2013-03-21 11:00:00,72.2,64.2,29.93,NE,44,5.0,8.0,76,0.00,,FEW,0.00,707.00,VWS V14.01,2013-03-21 15:00:00,
2013-03-21 11:02:00,72.2,64.2,29.93,NNE,32,4.0,8.0,76,0.00,,FEW,0.00,707.00,VWS V14.01,2013-03-21 15:02:00,
2013-03-21 11:03:00,72.2,63.8,29.93,NNE,16,4.0,8.0,75,0.00,,FEW,0.00,714.00,VWS V14.01,2013-03-21 15:03:00,
2013-03-21 11:04:00,72.2,63.8,29.93,NE,41,4.0,8.0,75,0.00,,FEW,0.00,722.00,VWS V14.01,2013-03-21 15:04:00,
2013-03-21 11:07:00,72.6,64.6,29.93,NNE,27,5.0,10.0,76,0.00,,FEW,0.00,761.00,VWS V14.01,2013-03-21 15:07:00,
2013-03-21 11:08:00,72.8,64.4,29.93,NNE,22,2.0,10.0,75,0.00,,FEW,0.00,793.00,VWS V14.01,2013-03-21 15:08:00,
2013-03-21 11:09:00,73.0,65.0,29.93,ENE,58,5.0,10.0,76,0.00,,FEW,0.00,812.00,VWS V14.01,2013-03-21 15:09:00,
2013-03-21 11:10:00,73.0,64.2,29.93,NNE,30,3.0,10.0,74,0.00,,FEW,0.00,476.00,VWS V14.01,2013-03-21 15:10:00,
2013-03-21 11:12:00,73.0,64.2,29.93,NNE,30,3.0,10.0,74,0.00,,FEW,0.00,476.00,VWS V14.01,2013-03-21 15:12:00,
2013-03-21 11:13:00,73.0,64.2,29.93,North,360,4.0,7.0,74,0.00,,FEW,0.00,608.00,VWS V14.01,2013-03-21 15:13:00,
2013-03-21 11:14:00,72.9,64.1,29.93,NNE,33,6.0,7.0,74,0.00,,FEW,0.00,559.00,VWS V14.01,2013-03-21 15:14:00,
2013-03-21 11:17:00,73.1,64.3,29.93,North,351,7.0,7.0,74,0.00,,FEW,0.00,466.00,VWS V14.01,2013-03-21 15:17:00,
2013-03-21 11:18:00,73.1,64.3,29.93,ENE,58,7.0,7.0,74,0.00,,FEW,0.00,522.00,VWS V14.01,2013-03-21 15:18:00,
2013-03-21 11:19:00,73.1,64.3,29.93,NNE,13,3.0,7.0,74,0.00,,FEW,0.00,580.00,VWS V14.01,2013-03-21 15:19:00,
2013-03-21 11:20:00,73.0,64.2,29.93,NNE,29,4.0,10.0,74,0.00,,FEW,0.00,677.00,VWS V14.01,2013-03-21 15:20:00,
2013-03-21 11:22:00,73.0,64.2,29.93,NNE,18,3.0,4.0,74,0.00,,FEW,0.00,677.00,VWS V14.01,2013-03-21 15:22:00,
2013-03-21 11:23:00,73.0,64.2,29.93,North,5,4.0,9.0,74,0.00,,FEW,0.00,464.00,VWS V14.01,2013-03-21 15:23:00,
2013-03-21 11:24:00,73.0,64.6,29.93,NNE,30,5.0,11.0,75,0.00,,FEW,0.00,455.00,VWS V14.01,2013-03-21 15:24:00,
2013-03-21 11:27:00,72.7,63.9,29.93,North,360,4.0,11.0,74,0.00,,FEW,0.00,571.00,VWS V14.01,2013-03-21 15:27:00,
2013-03-21 11:28:00,72.7,63.9,29.93,NE,44,6.0,11.0,74,0.00,,FEW,0.00,571.00,VWS V14.01,2013-03-21 15:28:00,
2013-03-21 11:29:00,72.5,63.8,29.93,NNE,33,6.0,11.0,74,0.00,,FEW,0.00,404.00,VWS V14.01,2013-03-21 15:29:00,
2013-03-21 11:30:00,72.3,63.6,29.93,NE,36,7.0,11.0,74,0.00,,FEW,0.00,673.00,VWS V14.01,2013-03-21 15:30:00,
2013-03-21 11:32:00,72.2,63.5,29.93,NE,45,4.0,8.0,74,0.00,,FEW,0.00,673.00,VWS V14.01,2013-03-21 15:32:00,
2013-03-21 11:33:00,72.2,63.5,29.93,NNE,30,6.0,8.0,74,0.00,,FEW,0.00,673.00,VWS V14.01,2013-03-21 15:33:00,
2013-03-21 11:35:00,72.4,64.4,29.93,NE,51,5.0,8.0,76,0.00,,FEW,0.00,673.00,VWS V14.01,2013-03-21 15:35:00,
2013-03-21 11:38:00,72.5,64.5,29.93,NE,40,5.0,8.0,76,0.00,,FEW,0.00,823.00,VWS V14.01,2013-03-21 15:38:00,
2013-03-21 11:40:00,72.6,64.6,29.93,NNE,20,8.0,8.0,76,0.00,,FEW,0.00,758.00,VWS V14.01,2013-03-21 15:40:00,
2013-03-21 11:43:00,72.6,64.6,29.93,NNE,17,6.0,8.0,76,0.00,,FEW,0.00,800.00,VWS V14.01,2013-03-21 15:43:00,
2013-03-21 11:44:00,72.6,64.6,29.93,ENE,61,3.0,8.0,76,0.00,,FEW,0.00,800.00,VWS V14.01,2013-03-21 15:44:00,
2013-03-21 11:45:00,72.6,64.2,29.93,NNE,32,6.0,9.0,75,0.00,,FEW,0.00,803.00,VWS V14.01,2013-03-21 15:45:00,
2013-03-21 11:48:00,72.7,64.3,29.93,NE,38,3.0,9.0,75,0.00,,FEW,0.00,807.00,VWS V14.01,2013-03-21 15:48:00,
2013-03-21 11:49:00,72.6,64.2,29.93,NE,53,6.0,9.0,75,0.00,,FEW,0.00,809.00,VWS V14.01,2013-03-21 15:49:00,
2013-03-21 11:50:00,72.8,64.8,29.93,NNW,329,6.0,9.0,76,0.00,,FEW,0.00,812.00,VWS V14.01,2013-03-21 15:50:00,
2013-03-21 11:53:00,73.0,64.6,29.93,NE,34,3.0,6.0,75,0.00,,FEW,0.00,840.00,VWS V14.01,2013-03-21 15:53:00,
2013-03-21 11:54:00,73.0,64.6,29.93,NNE,30,7.0,8.0,75,0.00,,FEW,0.00,749.00,VWS V14.01,2013-03-21 15:54:00,
2013-03-21 11:55:00,73.0,64.2,29.93,NNE,24,3.0,8.0,74,0.00,,FEW,0.00,840.00,VWS V14.01,2013-03-21 15:55:00,
2013-03-21 11:58:00,73.1,64.3,29.93,NNE,30,9.0,10.0,74,0.00,,FEW,0.00,824.00,VWS V14.01,2013-03-21 15:58:00,
2013-03-21 11:59:00,73.1,64.3,29.93,NNE,15,7.0,10.0,74,0.00,,FEW,0.00,824.00,VWS V14.01,2013-03-21 15:59:00,
2013-03-21 12:00:00,73.1,64.3,29.93,NE,55,7.0,10.0,74,0.00,,FEW,0.00,828.00,VWS V14.01,2013-03-21 16:00:00,
2013-03-21 12:03:00,73.0,63.8,29.92,NE,51,2.0,7.0,73,0.00,,FEW,0.00,833.00,VWS V14.01,2013-03-21 16:03:00,
2013-03-21 12:04:00,73.0,63.8,29.92,NE,53,4.0,9.0,73,0.00,,FEW,0.00,835.00,VWS V14.01,2013-03-21 16:04:00,
2013-03-21 12:05:00,73.0,64.2,29.92,NNE,31,6.0,9.0,74,0.00,,FEW,0.00,837.00,VWS V14.01,2013-03-21 16:05:00,
2013-03-21 12:08:00,73.2,64.4,29.92,NE,46,5.0,9.0,74,0.00,,FEW,0.00,840.00,VWS V14.01,2013-03-21 16:08:00,
2013-03-21 12:09:00,73.2,64.4,29.92,NNE,30,3.0,9.0,74,0.00,,FEW,0.00,842.00,VWS V14.01,2013-03-21 16:09:00,
2013-03-21 12:10:00,73.2,64.0,29.92,NNE,12,7.0,11.0,73,0.00,,FEW,0.00,847.00,VWS V14.01,2013-03-21 16:10:00,
2013-03-21 12:13:00,72.9,64.1,29.92,NE,53,4.0,9.0,74,0.00,,FEW,0.00,853.00,VWS V14.01,2013-03-21 16:13:00,
2013-03-21 12:14:00,72.9,64.5,29.92,NE,37,8.0,9.0,75,0.00,,FEW,0.00,853.00,VWS V14.01,2013-03-21 16:14:00,
2013-03-21 12:15:00,72.8,64.4,29.92,NNE,17,6.0,9.0,75,0.00,,FEW,0.00,853.00,VWS V14.01,2013-03-21 16:15:00,
2013-03-21 12:19:00,72.8,64.4,29.91,ENE,61,7.0,9.0,75,0.00,,FEW,0.00,858.00,VWS V14.01,2013-03-21 16:19:00,
2013-03-21 12:20:00,72.6,64.6,29.91,NE,53,3.0,9.0,76,0.00,,FEW,0.00,860.00,VWS V14.01,2013-03-21 16:20:00,
2013-03-21 12:21:00,72.6,64.6,29.91,North,10,8.0,9.0,76,0.00,,FEW,0.00,865.00,VWS V14.01,2013-03-21 16:21:00,
2013-03-21 12:24:00,72.8,64.4,29.91,NE,39,6.0,11.0,75,0.00,,FEW,0.00,863.00,VWS V14.01,2013-03-21 16:24:00,
2013-03-21 12:26:00,72.5,64.1,29.91,NE,34,3.0,11.0,75,0.00,,FEW,0.00,870.00,VWS V14.01,2013-03-21 16:26:00,
2013-03-21 12:29:00,72.6,64.6,29.91,NE,49,4.0,13.0,76,0.00,,FEW,0.00,870.00,VWS V14.01,2013-03-21 16:29:00,
2013-03-21 12:31:00,72.8,64.4,29.91,ENE,57,8.0,13.0,75,0.00,,FEW,0.00,877.00,VWS V14.01,2013-03-21 16:31:00,
2013-03-21 12:34:00,72.8,64.4,29.91,NNE,32,6.0,7.0,75,0.00,,FEW,0.00,879.00,VWS V14.01,2013-03-21 16:34:00,
2013-03-21 12:37:00,73.0,64.2,29.91,NE,56,4.0,7.0,74,0.00,,FEW,0.00,882.00,VWS V14.01,2013-03-21 16:37:00,
2013-03-21 12:39:00,73.0,63.8,29.91,NNE,22,4.0,9.0,73,0.00,,FEW,0.00,886.00,VWS V14.01,2013-03-21 16:39:00,
2013-03-21 12:40:00,73.0,64.2,29.91,NE,34,4.0,9.0,74,0.00,,FEW,0.00,888.00,VWS V14.01,2013-03-21 16:40:00,
2013-03-21 12:42:00,73.0,64.2,29.91,NE,36,5.0,9.0,74,0.00,,FEW,0.00,888.00,VWS V14.01,2013-03-21 16:42:00,
2013-03-21 12:44:00,73.0,64.2,29.91,ENE,67,5.0,8.0,74,0.00,,FEW,0.00,889.00,VWS V14.01,2013-03-21 16:44:00,
2013-03-21 12:45:00,73.1,64.3,29.91,ENE,58,5.0,8.0,74,0.00,,FEW,0.00,891.00,VWS V14.01,2013-03-21 16:45:00,
2013-03-21 12:47:00,73.0,64.2,29.91,NE,36,6.0,8.0,74,0.00,,FEW,0.00,895.00,VWS V14.01,2013-03-21 16:47:00,
2013-03-21 12:49:00,73.0,64.2,29.91,NE,50,4.0,8.0,74,0.00,,FEW,0.00,898.00,VWS V14.01,2013-03-21 16:49:00,
2013-03-21 12:50:00,73.0,64.2,29.91,NE,38,2.0,8.0,74,0.00,,FEW,0.00,896.00,VWS V14.01,2013-03-21 16:50:00,
2013-03-21 12:52:00,73.5,64.7,29.91,NE,43,2.0,5.0,74,0.00,,FEW,0.00,898.00,VWS V14.01,2013-03-21 16:52:00,
2013-03-21 12:54:00,73.9,65.1,29.91,NE,40,7.0,7.0,74,0.00,,FEW,0.00,900.00,VWS V14.01,2013-03-21 16:54:00,
2013-03-21 12:55:00,73.9,64.7,29.91,NE,42,4.0,8.0,73,0.00,,FEW,0.00,900.00,VWS V14.01,2013-03-21 16:55:00,
2013-03-21 12:57:00,73.9,64.7,29.91,NE,34,4.0,8.0,73,0.00,,FEW,0.00,902.00,VWS V14.01,2013-03-21 16:57:00,
2013-03-21 12:59:00,73.9,64.7,29.91,ENE,73,7.0,8.0,73,0.00,,FEW,0.00,902.00,VWS V14.01,2013-03-21 16:59:00,
2013-03-21 13:00:00,73.9,64.3,29.91,NNE,25,6.0,8.0,72,0.00,,FEW,0.00,905.00,VWS V14.01,2013-03-21 17:00:00,
2013-03-21 13:02:00,73.9,64.3,29.91,ENE,58,7.0,8.0,72,0.00,,FEW,0.00,907.00,VWS V14.01,2013-03-21 17:02:00,
2013-03-21 13:04:00,73.9,63.9,29.91,ENE,61,4.0,9.0,71,0.00,,FEW,0.00,907.00,VWS V14.01,2013-03-21 17:04:00,
2013-03-21 13:05:00,73.8,64.2,29.91,ENE,69,3.0,9.0,72,0.00,,FEW,0.00,907.00,VWS V14.01,2013-03-21 17:05:00,
2013-03-21 13:08:00,74.0,64.4,29.91,North,5,5.0,9.0,72,0.00,,FEW,0.00,907.00,VWS V14.01,2013-03-21 17:08:00,
2013-03-21 13:09:00,74.0,64.4,29.91,NE,46,4.0,9.0,72,0.00,,FEW,0.00,909.00,VWS V14.01,2013-03-21 17:09:00,
2013-03-21 13:10:00,74.2,64.6,29.91,NNE,26,10.0,10.0,72,0.00,,FEW,0.00,907.00,VWS V14.01,2013-03-21 17:10:00,
2013-03-21 13:11:00,74.1,64.5,29.91,North,360,6.0,10.0,72,0.00,,FEW,0.00,911.00,VWS V14.01,2013-03-21 17:11:00,
2013-03-21 13:13:00,74.1,64.1,29.91,NE,40,5.0,7.0,71,0.00,,FEW,0.00,911.00,VWS V14.01,2013-03-21 17:13:00,
2013-03-21 13:14:00,74.3,64.3,29.91,North,5,6.0,9.0,71,0.00,,FEW,0.00,914.00,VWS V14.01,2013-03-21 17:14:00,
2013-03-21 13:15:00,74.4,64.4,29.91,NE,34,3.0,9.0,71,0.00,,FEW,0.00,912.00,VWS V14.01,2013-03-21 17:15:00,
2013-03-21 13:16:00,74.6,64.6,29.91,NE,49,3.0,9.0,71,0.00,,FEW,0.00,912.00,VWS V14.01,2013-03-21 17:16:00,
2013-03-21 13:18:00,74.7,64.7,29.91,ENE,61,4.0,9.0,71,0.00,,FEW,0.00,909.00,VWS V14.01,2013-03-21 17:18:00,
2013-03-21 13:19:00,74.7,64.7,29.91,North,360,4.0,9.0,71,0.00,,FEW,0.00,914.00,VWS V14.01,2013-03-21 17:19:00,
2013-03-21 13:20:00,74.7,64.7,29.91,North,355,4.0,9.0,71,0.00,,FEW,0.00,911.00,VWS V14.01,2013-03-21 17:20:00,
2013-03-21 13:21:00,74.8,64.4,29.91,NNE,24,2.0,9.0,70,0.00,,FEW,0.00,912.00,VWS V14.01,2013-03-21 17:21:00,
2013-03-21 13:24:00,74.9,64.5,29.91,NNE,19,4.0,8.0,70,0.00,,FEW,0.00,911.00,VWS V14.01,2013-03-21 17:24:00,
2013-03-21 13:25:00,75.1,64.7,29.91,NNE,33,5.0,8.0,70,0.00,,FEW,0.00,914.00,VWS V14.01,2013-03-21 17:25:00,
2013-03-21 13:26:00,75.1,65.1,29.91,NNE,31,3.0,9.0,71,0.00,,FEW,0.00,914.00,VWS V14.01,2013-03-21 17:26:00,
2013-03-21 13:29:00,74.9,64.1,29.91,North,5,4.0,9.0,69,0.00,,FEW,0.00,914.00,VWS V14.01,2013-03-21 17:29:00,
2013-03-21 13:30:00,74.7,63.9,29.91,East,80,2.0,9.0,69,0.00,,FEW,0.00,914.00,VWS V14.01,2013-03-21 17:30:00,
2013-03-21 13:31:00,74.8,64.4,29.90,NNE,30,2.0,9.0,70,0.00,,FEW,0.00,914.00,VWS V14.01,2013-03-21 17:31:00,
2013-03-21 13:34:00,75.1,64.2,29.90,NE,48,3.0,8.0,69,0.00,,FEW,0.00,916.00,VWS V14.01,2013-03-21 17:34:00,
2013-03-21 13:35:00,75.0,64.2,29.90,NE,36,5.0,8.0,69,0.00,,FEW,0.00,916.00,VWS V14.01,2013-03-21 17:35:00,
2013-03-21 13:36:00,74.9,64.5,29.90,NE,49,6.0,8.0,70,0.00,,FEW,0.00,916.00,VWS V14.01,2013-03-21 17:36:00,
2013-03-21 13:39:00,74.8,64.4,29.90,NNE,28,3.0,8.0,70,0.00,,FEW,0.00,912.00,VWS V14.01,2013-03-21 17:39:00,
2013-03-21 13:40:00,74.8,64.4,29.90,NNE,23,4.0,8.0,70,0.00,,FEW,0.00,914.00,VWS V14.01,2013-03-21 17:40:00,
2013-03-21 13:42:00,74.8,64.4,29.90,NNE,19,5.0,8.0,70,0.00,,FEW,0.00,914.00,VWS V14.01,2013-03-21 17:42:00,
2013-03-21 13:44:00,74.7,64.3,29.90,NE,37,5.0,8.0,70,0.00,,FEW,0.00,914.00,VWS V14.01,2013-03-21 17:44:00,
2013-03-21 13:45:00,74.6,64.2,29.90,NNE,32,3.0,8.0,70,0.00,,FEW,0.00,914.00,VWS V14.01,2013-03-21 17:45:00,
2013-03-21 13:47:00,74.7,63.9,29.89,NE,34,3.0,8.0,69,0.00,,FEW,0.00,914.00,VWS V14.01,2013-03-21 17:47:00,
2013-03-21 13:49:00,74.6,63.8,29.89,NE,46,8.0,8.0,69,0.00,,FEW,0.00,914.00,VWS V14.01,2013-03-21 17:49:00,
2013-03-21 13:50:00,74.5,64.1,29.89,NE,38,6.0,8.0,70,0.00,,FEW,0.00,914.00,VWS V14.01,2013-03-21 17:50:00,
2013-03-21 13:52:00,74.5,64.1,29.89,NE,38,2.0,4.0,70,0.00,,FEW,0.00,912.00,VWS V14.01,2013-03-21 17:52:00,
2013-03-21 13:54:00,74.6,64.2,29.89,NE,40,4.0,8.0,70,0.00,,FEW,0.00,914.00,VWS V14.01,2013-03-21 17:54:00,
2013-03-21 13:57:00,74.9,64.1,29.89,NNE,33,7.0,8.0,69,0.00,,FEW,0.00,921.00,VWS V14.01,2013-03-21 17:57:00,
2013-03-21 13:58:00,75.0,64.2,29.89,ENE,72,1.0,8.0,69,0.00,,FEW,0.00,928.00,VWS V14.01,2013-03-21 17:58:00,
2013-03-21 13:59:00,75.1,64.7,29.89,NE,38,3.0,8.0,70,0.00,,FEW,0.00,932.00,VWS V14.01,2013-03-21 17:59:00,
2013-03-21 14:00:00,75.3,64.4,29.89,NE,51,4.0,8.0,69,0.00,,FEW,0.00,942.00,VWS V14.01,2013-03-21 18:00:00,
2013-03-21 14:02:00,75.2,64.3,29.89,NE,51,6.0,8.0,69,0.00,,FEW,0.00,942.00,VWS V14.01,2013-03-21 18:02:00,
2013-03-21 14:03:00,75.3,64.4,29.89,NE,45,3.0,5.0,69,0.00,,FEW,0.00,942.00,VWS V14.01,2013-03-21 18:03:00,
2013-03-21 14:04:00,75.2,64.3,29.89,NE,54,3.0,5.0,69,0.00,,FEW,0.00,935.00,VWS V14.01,2013-03-21 18:04:00,
2013-03-21 14:07:00,75.2,63.9,29.89,NE,45,8.0,8.0,68,0.00,,FEW,0.00,928.00,VWS V14.01,2013-03-21 18:07:00,
2013-03-21 14:08:00,75.1,63.8,29.89,NE,51,5.0,8.0,68,0.00,,FEW,0.00,926.00,VWS V14.01,2013-03-21 18:08:00,
2013-03-21 14:09:00,75.0,63.7,29.89,NE,42,4.0,8.0,68,0.00,,FEW,0.00,930.00,VWS V14.01,2013-03-21 18:09:00,
2013-03-21 14:10:00,75.1,63.8,29.89,NE,34,3.0,8.0,68,0.00,,FEW,0.00,926.00,VWS V14.01,2013-03-21 18:10:00,
2013-03-21 14:12:00,75.1,63.8,29.89,NE,41,3.0,8.0,68,0.00,,FEW,0.00,926.00,VWS V14.01,2013-03-21 18:12:00,
2013-03-21 14:13:00,75.2,64.3,29.89,NNE,24,3.0,6.0,69,0.00,,FEW,0.00,918.00,VWS V14.01,2013-03-21 18:13:00,
2013-03-21 14:15:00,75.2,64.3,29.89,NE,39,3.0,7.0,69,0.00,,FEW,0.00,902.00,VWS V14.01,2013-03-21 18:15:00,
2013-03-21 14:17:00,75.2,63.9,29.88,NE,46,7.0,7.0,68,0.00,,FEW,0.00,902.00,VWS V14.01,2013-03-21 18:17:00,
2013-03-21 14:18:00,75.1,63.8,29.88,NE,38,3.0,7.0,68,0.00,,FEW,0.00,896.00,VWS V14.01,2013-03-21 18:18:00,
2013-03-21 14:20:00,75.2,64.3,29.88,NNE,22,6.0,9.0,69,0.00,,FEW,0.00,895.00,VWS V14.01,2013-03-21 18:20:00,
2013-03-21 14:22:00,75.3,64.4,29.88,NE,48,6.0,6.0,69,0.00,,FEW,0.00,893.00,VWS V14.01,2013-03-21 18:22:00,
2013-03-21 14:23:00,75.4,64.1,29.88,NNE,32,3.0,7.0,68,0.00,,FEW,0.00,891.00,VWS V14.01,2013-03-21 18:23:00,
2013-03-21 14:26:00,75.4,64.5,29.88,NNE,33,3.0,7.0,69,0.00,,FEW,0.00,889.00,VWS V14.01,2013-03-21 18:26:00,
2013-03-21 14:27:00,75.3,64.0,29.88,NE,34,2.0,7.0,68,0.00,,FEW,0.00,888.00,VWS V14.01,2013-03-21 18:27:00,
2013-03-21 14:28:00,75.6,64.3,29.88,NE,35,6.0,7.0,68,0.00,,FEW,0.00,888.00,VWS V14.01,2013-03-21 18:28:00,
2013-03-21 14:30:00,75.8,64.1,29.88,NE,38,3.0,7.0,67,0.00,,FEW,0.00,879.00,VWS V14.01,2013-03-21 18:30:00,
2013-03-21 14:31:00,75.9,64.6,29.88,ENE,68,5.0,7.0,68,0.00,,FEW,0.00,881.00,VWS V14.01,2013-03-21 18:31:00,
2013-03-21 14:32:00,75.8,64.5,29.88,North,5,3.0,4.0,68,0.00,,FEW,0.00,879.00,VWS V14.01,2013-03-21 18:32:00,
2013-03-21 14:33:00,76.1,64.8,29.88,NE,49,3.0,4.0,68,0.00,,FEW,0.00,877.00,VWS V14.01,2013-03-21 18:33:00,
2013-03-21 14:35:00,76.1,64.4,29.88,East,98,5.0,6.0,67,0.00,,FEW,0.00,875.00,VWS V14.01,2013-03-21 18:35:00,
2013-03-21 14:37:00,76.1,64.4,29.88,East,86,2.0,7.0,67,0.00,,FEW,0.00,874.00,VWS V14.01,2013-03-21 18:37:00,
2013-03-21 14:38:00,76.1,64.4,29.88,ENE,67,7.0,9.0,67,0.00,,FEW,0.00,874.00,VWS V14.01,2013-03-21 18:38:00,
2013-03-21 14:39:00,76.1,64.4,29.88,ENE,59,5.0,9.0,67,0.00,,FEW,0.00,874.00,VWS V14.01,2013-03-21 18:39:00,
2013-03-21 14:40:00,75.7,63.5,29.88,NE,39,6.0,9.0,66,0.00,,FEW,0.00,868.00,VWS V14.01,2013-03-21 18:40:00,
2013-03-21 14:41:00,75.9,63.7,29.88,NE,43,3.0,9.0,66,0.00,,FEW,0.00,870.00,VWS V14.01,2013-03-21 18:41:00,
2013-03-21 14:42:00,75.7,63.5,29.88,NNE,30,2.0,6.0,66,0.00,,FEW,0.00,867.00,VWS V14.01,2013-03-21 18:42:00,
2013-03-21 14:44:00,75.6,63.9,29.88,NNE,23,3.0,6.0,67,0.00,,FEW,0.00,865.00,VWS V14.01,2013-03-21 18:44:00,
2013-03-21 14:46:00,75.6,63.9,29.88,NE,53,3.0,6.0,67,0.00,,FEW,0.00,858.00,VWS V14.01,2013-03-21 18:46:00,
2013-03-21 14:47:00,75.6,63.5,29.88,NE,53,3.0,6.0,66,0.00,,FEW,0.00,856.00,VWS V14.01,2013-03-21 18:47:00,
2013-03-21 14:49:00,75.7,64.0,29.88,NNE,24,5.0,6.0,67,0.00,,FEW,0.00,856.00,VWS V14.01,2013-03-21 18:49:00,
2013-03-21 14:50:00,75.5,63.4,29.88,NE,35,5.0,7.0,66,0.00,,FEW,0.00,853.00,VWS V14.01,2013-03-21 18:50:00,
2013-03-21 14:51:00,75.5,63.4,29.88,ENE,71,4.0,7.0,66,0.00,,FEW,0.00,854.00,VWS V14.01,2013-03-21 18:51:00,
2013-03-21 14:52:00,75.5,63.8,29.88,NNE,17,5.0,5.0,67,0.00,,FEW,0.00,853.00,VWS V14.01,2013-03-21 18:52:00,
2013-03-21 14:54:00,75.5,63.8,29.88,ESE,106,3.0,7.0,67,0.00,,FEW,0.00,846.00,VWS V14.01,2013-03-21 18:54:00,
2013-03-21 14:55:00,75.4,63.3,29.88,ENE,60,1.0,7.0,66,0.00,,FEW,0.00,846.00,VWS V14.01,2013-03-21 18:55:00,
2013-03-21 14:57:00,75.5,63.8,29.88,NE,51,4.0,7.0,67,0.00,,FEW,0.00,838.00,VWS V14.01,2013-03-21 18:57:00,
2013-03-21 14:58:00,75.4,63.7,29.88,NE,53,2.0,7.0,67,0.00,,FEW,0.00,840.00,VWS V14.01,2013-03-21 18:58:00,
2013-03-21 14:59:00,75.7,64.4,29.88,NE,51,1.0,7.0,68,0.00,,FEW,0.00,838.00,VWS V14.01,2013-03-21 18:59:00,
2013-03-21 15:00:00,76.1,64.8,29.88,NNE,28,2.0,7.0,68,0.00,,FEW,0.00,838.00,VWS V14.01,2013-03-21 19:00:00,
2013-03-21 15:02:00,76.2,63.6,29.87,NE,43,3.0,7.0,65,0.00,,FEW,0.00,835.00,VWS V14.01,2013-03-21 19:02:00,
2013-03-21 15:03:00,76.3,63.2,29.87,NE,34,2.0,3.0,64,0.00,,FEW,0.00,833.00,VWS V14.01,2013-03-21 19:03:00,
2013-03-21 15:04:00,76.4,63.8,29.87,NNE,28,2.0,3.0,65,0.00,,FEW,0.00,831.00,VWS V14.01,2013-03-21 19:04:00,
2013-03-21 15:05:00,76.5,64.3,29.87,NNE,30,2.0,3.0,66,0.00,,FEW,0.00,831.00,VWS V14.01,2013-03-21 19:05:00,
2013-03-21 15:08:00,76.5,63.4,29.87,NE,36,4.0,9.0,64,0.00,,FEW,0.00,830.00,VWS V14.01,2013-03-21 19:08:00,
2013-03-21 15:09:00,76.3,63.7,29.87,NE,46,2.0,9.0,65,0.00,,FEW,0.00,821.00,VWS V14.01,2013-03-21 19:09:00,
2013-03-21 15:10:00,76.2,63.6,29.87,NE,38,5.0,9.0,65,0.00,,FEW,0.00,821.00,VWS V14.01,2013-03-21 19:10:00,
2013-03-21 15:13:00,76.2,63.6,29.87,NE,46,3.0,6.0,65,0.00,,FEW,0.00,814.00,VWS V14.01,2013-03-21 19:13:00,
2013-03-21 15:14:00,76.4,64.2,29.87,NE,34,3.0,6.0,66,0.00,,FEW,0.00,812.00,VWS V14.01,2013-03-21 19:14:00,
2013-03-21 15:15:00,76.7,64.1,29.87,NE,34,4.0,6.0,65,0.00,,FEW,0.00,809.00,VWS V14.01,2013-03-21 19:15:00,
2013-03-21 15:18:00,76.5,63.0,29.87,NE,36,5.0,6.0,63,0.00,,FEW,0.00,805.00,VWS V14.01,2013-03-21 19:18:00,
2013-03-21 15:19:00,76.3,63.7,29.87,NE,37,3.0,6.0,65,0.00,,FEW,0.00,802.00,VWS V14.01,2013-03-21 19:19:00,
2013-03-21 15:20:00,76.3,64.1,29.87,NE,54,4.0,6.0,66,0.00,,FEW,0.00,802.00,VWS V14.01,2013-03-21 19:20:00,
2013-03-21 15:23:00,76.5,63.9,29.87,NNE,24,3.0,7.0,65,0.00,,FEW,0.00,795.00,VWS V14.01,2013-03-21 19:23:00,
2013-03-21 15:24:00,76.6,64.0,29.87,NE,40,2.0,7.0,65,0.00,,FEW,0.00,795.00,VWS V14.01,2013-03-21 19:24:00,
2013-03-21 15:25:00,76.7,64.1,29.87,NE,47,4.0,7.0,65,0.00,,FEW,0.00,789.00,VWS V14.01,2013-03-21 19:25:00,
2013-03-21 15:28:00,76.3,63.2,29.87,ENE,57,3.0,7.0,64,0.00,,FEW,0.00,784.00,VWS V14.01,2013-03-21 19:28:00,
2013-03-21 15:29:00,76.1,63.9,29.87,NNE,25,3.0,7.0,66,0.00,,FEW,0.00,780.00,VWS V14.01,2013-03-21 19:29:00,
2013-03-21 15:30:00,76.2,63.6,29.87,NNE,24,4.0,7.0,65,0.00,,FEW,0.00,779.00,VWS V14.01,2013-03-21 19:30:00,
2013-03-21 15:33:00,76.0,63.4,29.86,NE,39,3.0,5.0,65,0.00,,FEW,0.00,768.00,VWS V14.01,2013-03-21 19:33:00,
2013-03-21 15:34:00,76.1,63.9,29.86,NE,35,7.0,8.0,66,0.00,,FEW,0.00,765.00,VWS V14.01,2013-03-21 19:34:00,
2013-03-21 15:36:00,76.0,63.4,29.86,NE,34,3.0,8.0,65,0.00,,FEW,0.00,759.00,VWS V14.01,2013-03-21 19:36:00,
2013-03-21 15:38:00,75.9,63.7,29.86,ENE,67,3.0,8.0,66,0.00,,FEW,0.00,763.00,VWS V14.01,2013-03-21 19:38:00,
2013-03-21 15:39:00,75.9,63.3,29.86,East,80,3.0,8.0,65,0.00,,FEW,0.00,759.00,VWS V14.01,2013-03-21 19:39:00,
2013-03-21 15:40:00,75.9,63.3,29.86,NNE,29,4.0,8.0,65,0.00,,FEW,0.00,756.00,VWS V14.01,2013-03-21 19:40:00,
2013-03-21 15:41:00,75.9,63.7,29.86,NE,41,4.0,8.0,66,0.00,,FEW,0.00,758.00,VWS V14.01,2013-03-21 19:41:00,
2013-03-21 15:43:00,75.8,63.6,29.86,NE,55,2.0,4.0,66,0.00,,FEW,0.00,756.00,VWS V14.01,2013-03-21 19:43:00,
2013-03-21 15:44:00,75.8,63.6,29.86,NE,55,1.0,4.0,66,0.00,,FEW,0.00,756.00,VWS V14.01,2013-03-21 19:44:00,
2013-03-21 15:45:00,76.0,63.8,29.86,East,94,3.0,5.0,66,0.00,,FEW,0.00,754.00,VWS V14.01,2013-03-21 19:45:00,
2013-03-21 15:46:00,76.3,64.1,29.86,NE,46,1.0,5.0,66,0.00,,FEW,0.00,761.00,VWS V14.01,2013-03-21 19:46:00,
2013-03-21 15:48:00,76.4,63.8,29.87,ENE,66,3.0,7.0,65,0.00,,FEW,0.00,598.00,VWS V14.01,2013-03-21 19:48:00,
2013-03-21 15:49:00,76.4,63.8,29.87,ENE,68,3.0,7.0,65,0.00,,FEW,0.00,598.00,VWS V14.01,2013-03-21 19:49:00,
2013-03-21 15:50:00,76.3,63.7,29.87,NE,40,3.0,7.0,65,0.00,,FEW,0.00,598.00,VWS V14.01,2013-03-21 19:50:00,
2013-03-21 15:51:00,76.3,63.7,29.87,ENE,76,1.0,7.0,65,0.00,,FEW,0.00,598.00,VWS V14.01,2013-03-21 19:51:00,
2013-03-21 15:54:00,76.3,63.2,29.87,North,360,2.0,4.0,64,0.00,,FEW,0.00,598.00,VWS V14.01,2013-03-21 19:54:00,
2013-03-21 15:55:00,76.4,63.8,29.87,North,11,5.0,5.0,65,0.00,,FEW,0.00,577.00,VWS V14.01,2013-03-21 19:55:00,
2013-03-21 15:56:00,76.4,63.3,29.87,NNE,32,4.0,5.0,64,0.00,,FEW,0.00,577.00,VWS V14.01,2013-03-21 19:56:00,
2013-03-21 15:59:00,76.2,63.6,29.87,North,5,2.0,5.0,65,0.00,,FEW,0.00,475.00,VWS V14.01,2013-03-21 19:59:00,
2013-03-21 16:00:00,76.2,63.6,29.87,NNE,19,2.0,7.0,65,0.00,,FEW,0.00,545.00,VWS V14.01,2013-03-21 20:00:00,
2013-03-21 16:02:00,76.0,63.0,29.87,NNW,345,2.0,7.0,64,0.00,,FEW,0.00,545.00,VWS V14.01,2013-03-21 20:02:00,
2013-03-21 16:04:00,75.8,63.2,29.87,NE,46,4.0,5.0,65,0.00,,FEW,0.00,545.00,VWS V14.01,2013-03-21 20:04:00,
2013-03-21 16:05:00,75.8,63.2,29.87,NE,55,1.0,5.0,65,0.00,,FEW,0.00,545.00,VWS V14.01,2013-03-21 20:05:00,
2013-03-21 16:07:00,75.9,63.3,29.87,NNE,30,2.0,5.0,65,0.00,,FEW,0.00,338.00,VWS V14.01,2013-03-21 20:07:00,
2013-03-21 16:09:00,75.9,63.3,29.87,NE,46,3.0,5.0,65,0.00,,FEW,0.00,396.00,VWS V14.01,2013-03-21 20:09:00,
2013-03-21 16:10:00,75.9,63.3,29.87,NE,34,2.0,5.0,65,0.00,,FEW,0.00,438.00,VWS V14.01,2013-03-21 20:10:00,
2013-03-21 16:12:00,75.8,63.6,29.87,NE,45,0.0,1.0,66,0.00,,FEW,0.00,438.00,VWS V14.01,2013-03-21 20:12:00,
2013-03-21 16:14:00,75.8,63.2,29.87,ENE,76,0.0,3.0,65,0.00,,FEW,0.00,682.00,VWS V14.01,2013-03-21 20:14:00,
2013-03-21 16:15:00,75.8,63.6,29.87,NE,56,2.0,3.0,66,0.00,,FEW,0.00,647.00,VWS V14.01,2013-03-21 20:15:00,
2013-03-21 16:17:00,76.1,63.9,29.87,ENE,65,2.0,3.0,66,0.00,,FEW,0.00,666.00,VWS V14.01,2013-03-21 20:17:00,
2013-03-21 16:19:00,76.4,63.8,29.87,North,5,3.0,4.0,65,0.00,,FEW,0.00,654.00,VWS V14.01,2013-03-21 20:19:00,
2013-03-21 16:20:00,76.4,63.8,29.87,NNE,32,2.0,4.0,65,0.00,,FEW,0.00,654.00,VWS V14.01,2013-03-21 20:20:00,
2013-03-21 16:25:00,76.3,64.1,29.87,NNE,17,3.0,3.0,66,0.00,,FEW,0.00,635.00,VWS V14.01,2013-03-21 20:25:00,
2013-03-21 16:30:00,76.1,63.5,29.87,ENE,61,1.0,5.0,65,0.00,,FEW,0.00,432.00,VWS V14.01,2013-03-21 20:30:00,
2013-03-21 16:31:00,76.1,63.5,29.87,NE,35,1.0,5.0,65,0.00,,FEW,0.00,345.00,VWS V14.01,2013-03-21 20:31:00,
2013-03-21 16:35:00,76.1,63.9,29.87,NW,320,2.0,4.0,66,0.00,,FEW,0.00,448.00,VWS V14.01,2013-03-21 20:35:00,
2013-03-21 16:36:00,76.1,63.9,29.87,NW,320,2.0,4.0,66,0.00,,FEW,0.00,448.00,VWS V14.01,2013-03-21 20:36:00,
2013-03-21 16:40:00,75.9,63.3,29.87,NE,36,1.0,4.0,65,0.00,,FEW,0.00,285.00,VWS V14.01,2013-03-21 20:40:00,
2013-03-21 16:41:00,75.9,63.3,29.87,NNE,24,4.0,4.0,65,0.00,,FEW,0.00,285.00,VWS V14.01,2013-03-21 20:41:00,
2013-03-21 16:45:00,75.7,63.1,29.87,NE,39,2.0,3.0,65,0.00,,FEW,0.00,318.00,VWS V14.01,2013-03-21 20:45:00,
2013-03-21 16:46:00,75.7,63.1,29.87,NE,36,1.0,3.0,65,0.00,,FEW,0.00,332.00,VWS V14.01,2013-03-21 20:46:00,
2013-03-21 16:50:00,75.6,63.0,29.87,NE,39,1.0,4.0,65,0.00,,FEW,0.00,427.00,VWS V14.01,2013-03-21 20:50:00,
2013-03-21 16:51:00,75.6,63.0,29.87,NE,39,1.0,4.0,65,0.00,,FEW,0.00,427.00,VWS V14.01,2013-03-21 20:51:00,
2013-03-21 16:52:00,75.8,63.6,29.87,NE,35,2.0,4.0,66,0.00,,FEW,0.00,650.00,VWS V14.01,2013-03-21 20:52:00,
2013-03-21 16:55:00,76.1,63.5,29.87,North,9,2.0,6.0,65,0.00,,FEW,0.00,561.00,VWS V14.01,2013-03-21 20:55:00,
2013-03-21 16:56:00,76.1,63.5,29.87,North,9,2.0,6.0,65,0.00,,FEW,0.00,561.00,VWS V14.01,2013-03-21 20:56:00,
2013-03-21 16:57:00,76.1,63.5,29.87,NNE,19,4.0,6.0,65,0.00,,FEW,0.00,557.00,VWS V14.01,2013-03-21 20:57:00,
2013-03-21 17:01:00,75.8,63.2,29.87,North,5,4.0,7.0,65,0.00,,FEW,0.00,459.00,VWS V14.01,2013-03-21 21:01:00,
2013-03-21 17:02:00,75.8,63.2,29.87,North,5,4.0,7.0,65,0.00,,FEW,0.00,237.00,VWS V14.01,2013-03-21 21:02:00,
2013-03-21 17:03:00,75.8,63.6,29.87,NNE,26,2.0,4.0,66,0.00,,FEW,0.00,262.00,VWS V14.01,2013-03-21 21:03:00,
2013-03-21 17:06:00,75.8,63.6,29.87,NW,317,3.0,6.0,66,0.00,,FEW,0.00,299.00,VWS V14.01,2013-03-21 21:06:00,
2013-03-21 17:07:00,75.8,63.6,29.87,WNW,302,3.0,6.0,66,0.00,,FEW,0.00,288.00,VWS V14.01,2013-03-21 21:07:00,
2013-03-21 17:08:00,75.7,63.1,29.87,North,355,3.0,6.0,65,0.00,,FEW,0.00,267.00,VWS V14.01,2013-03-21 21:08:00,
2013-03-21 17:11:00,75.7,63.5,29.87,NW,304,2.0,6.0,66,0.00,,FEW,0.00,218.00,VWS V14.01,2013-03-21 21:11:00,
2013-03-21 17:12:00,75.6,63.5,29.87,North,355,3.0,6.0,66,0.00,,FEW,0.00,206.00,VWS V14.01,2013-03-21 21:12:00,
2013-03-21 17:13:00,75.6,63.5,29.87,NNW,348,0.0,4.0,66,0.00,,FEW,0.00,197.00,VWS V14.01,2013-03-21 21:13:00,
2013-03-21 17:16:00,75.5,63.4,29.87,NW,309,4.0,6.0,66,0.00,,FEW,0.00,183.00,VWS V14.01,2013-03-21 21:16:00,
2013-03-21 17:17:00,75.5,63.4,29.87,North,355,6.0,6.0,66,0.00,,FEW,0.00,181.00,VWS V14.01,2013-03-21 21:17:00,
2013-03-21 17:18:00,75.4,63.3,29.87,NNW,330,4.0,6.0,66,0.00,,FEW,0.00,174.00,VWS V14.01,2013-03-21 21:18:00,
2013-03-21 17:21:00,75.2,63.1,29.87,NW,316,2.0,6.0,66,0.00,,FEW,0.00,163.00,VWS V14.01,2013-03-21 21:21:00,
2013-03-21 17:22:00,75.1,63.4,29.87,North,5,3.0,3.0,67,0.00,,FEW,0.00,165.00,VWS V14.01,2013-03-21 21:22:00,
2013-03-21 17:24:00,75.0,63.3,29.87,NNW,331,3.0,6.0,67,0.00,,FEW,0.00,163.00,VWS V14.01,2013-03-21 21:24:00,
2013-03-21 17:26:00,74.8,63.1,29.87,WNW,301,4.0,6.0,67,0.00,,FEW,0.00,156.00,VWS V14.01,2013-03-21 21:26:00,
2013-03-21 17:27:00,74.8,63.1,29.87,NW,308,1.0,6.0,67,0.00,,FEW,0.00,162.00,VWS V14.01,2013-03-21 21:27:00,
2013-03-21 17:29:00,74.6,62.9,29.87,North,355,4.0,6.0,67,0.00,,FEW,0.00,163.00,VWS V14.01,2013-03-21 21:29:00,
2013-03-21 17:32:00,74.4,63.6,29.87,NW,310,5.0,7.0,69,0.00,,FEW,0.00,202.00,VWS V14.01,2013-03-21 21:32:00,
2013-03-21 17:34:00,74.2,63.4,29.87,NNW,346,4.0,5.0,69,0.00,,FEW,0.00,197.00,VWS V14.01,2013-03-21 21:34:00,
2013-03-21 17:37:00,74.0,63.6,29.87,North,360,4.0,6.0,70,0.00,,FEW,0.00,160.00,VWS V14.01,2013-03-21 21:37:00,
2013-03-21 17:38:00,74.0,63.6,29.87,NNW,327,5.0,6.0,70,0.00,,FEW,0.00,160.00,VWS V14.01,2013-03-21 21:38:00,
2013-03-21 17:39:00,73.9,63.5,29.87,North,349,4.0,6.0,70,0.00,,FEW,0.00,156.00,VWS V14.01,2013-03-21 21:39:00,
2013-03-21 17:42:00,73.5,63.1,29.87,NW,319,4.0,6.0,70,0.00,,FEW,0.00,193.00,VWS V14.01,2013-03-21 21:42:00,
2013-03-21 17:43:00,73.5,63.1,29.87,NNW,339,5.0,6.0,70,0.00,,FEW,0.00,193.00,VWS V14.01,2013-03-21 21:43:00,
2013-03-21 17:44:00,73.4,63.0,29.87,NNW,338,8.0,8.0,70,0.00,,FEW,0.00,179.00,VWS V14.01,2013-03-21 21:44:00,
2013-03-21 17:47:00,73.1,63.2,29.88,North,355,5.0,9.0,71,0.00,,FEW,0.00,149.00,VWS V14.01,2013-03-21 21:47:00,
2013-03-21 17:48:00,73.1,63.2,29.88,NNW,338,5.0,9.0,71,0.00,,FEW,0.00,149.00,VWS V14.01,2013-03-21 21:48:00,
2013-03-21 17:49:00,73.0,63.0,29.88,North,5,6.0,9.0,71,0.00,,FEW,0.00,162.00,VWS V14.01,2013-03-21 21:49:00,
2013-03-21 17:52:00,72.9,63.0,29.88,NNW,342,6.0,6.0,71,0.00,,FEW,0.00,167.00,VWS V14.01,2013-03-21 21:52:00,
2013-03-21 17:53:00,72.9,63.0,29.88,NNW,343,5.0,6.0,71,0.00,,FEW,0.00,397.00,VWS V14.01,2013-03-21 21:53:00,
2013-03-21 17:54:00,73.0,63.5,29.88,NNW,333,4.0,6.0,72,0.00,,FEW,0.00,362.00,VWS V14.01,2013-03-21 21:54:00,
2013-03-21 17:57:00,73.3,63.3,29.88,NNW,345,6.0,9.0,71,0.00,,FEW,0.00,343.00,VWS V14.01,2013-03-21 21:57:00,
2013-03-21 17:58:00,73.3,63.3,29.88,NNW,329,5.0,9.0,71,0.00,,FEW,0.00,343.00,VWS V14.01,2013-03-21 21:58:00,
2013-03-21 17:59:00,73.4,63.4,29.88,WNW,282,5.0,9.0,71,0.00,,FEW,0.00,343.00,VWS V14.01,2013-03-21 21:59:00,
2013-03-21 18:02:00,73.4,63.4,29.88,NNW,335,5.0,6.0,71,0.00,,FEW,0.00,192.00,VWS V14.01,2013-03-21 22:02:00,
2013-03-21 18:03:00,73.4,63.4,29.88,NW,319,5.0,6.0,71,0.00,,FEW,0.00,192.00,VWS V14.01,2013-03-21 22:03:00,
2013-03-21 18:04:00,73.4,63.4,29.88,North,9,3.0,7.0,71,0.00,,FEW,0.00,130.00,VWS V14.01,2013-03-21 22:04:00,
2013-03-21 18:07:00,73.2,63.2,29.88,NW,310,2.0,9.0,71,0.00,,FEW,0.00,134.00,VWS V14.01,2013-03-21 22:07:00,
2013-03-21 18:08:00,73.2,62.8,29.88,WNW,285,5.0,9.0,70,0.00,,FEW,0.00,134.00,VWS V14.01,2013-03-21 22:08:00,
2013-03-21 18:09:00,73.1,63.2,29.88,NNW,343,4.0,9.0,71,0.00,,FEW,0.00,134.00,VWS V14.01,2013-03-21 22:09:00,
2013-03-21 18:12:00,73.0,62.7,29.88,NW,305,3.0,5.0,70,0.00,,FEW,0.00,116.00,VWS V14.01,2013-03-21 22:12:00,
2013-03-21 18:13:00,72.9,62.5,29.88,North,355,1.0,5.0,70,0.00,,FEW,0.00,111.00,VWS V14.01,2013-03-21 22:13:00,
2013-03-21 18:15:00,72.8,62.9,29.88,West,264,4.0,6.0,71,0.00,,FEW,0.00,102.00,VWS V14.01,2013-03-21 22:15:00,
2013-03-21 18:18:00,72.7,62.8,29.88,NW,317,4.0,7.0,71,0.00,,FEW,0.00,102.00,VWS V14.01,2013-03-21 22:18:00,
2013-03-21 18:19:00,72.6,62.7,29.88,NNW,346,5.0,7.0,71,0.00,,FEW,0.00,104.00,VWS V14.01,2013-03-21 22:19:00,
2013-03-21 18:20:00,72.5,62.6,29.88,NW,324,3.0,7.0,71,0.00,,FEW,0.00,105.00,VWS V14.01,2013-03-21 22:20:00,
2013-03-21 18:23:00,72.4,62.9,29.88,NNW,336,5.0,5.0,72,0.00,,FEW,0.00,100.00,VWS V14.01,2013-03-21 22:23:00,
2013-03-21 18:24:00,72.3,62.4,29.88,NNW,329,7.0,8.0,71,0.00,,FEW,0.00,97.00,VWS V14.01,2013-03-21 22:24:00,
2013-03-21 18:25:00,72.2,62.3,29.88,West,279,3.0,8.0,71,0.00,,FEW,0.00,93.00,VWS V14.01,2013-03-21 22:25:00,
2013-03-21 18:28:00,72.1,62.2,29.88,NNW,346,2.0,8.0,71,0.00,,FEW,0.00,104.00,VWS V14.01,2013-03-21 22:28:00,
2013-03-21 18:29:00,72.1,62.2,29.88,North,360,3.0,8.0,71,0.00,,FEW,0.00,104.00,VWS V14.01,2013-03-21 22:29:00,
2013-03-21 18:30:00,72.1,62.6,29.88,North,351,3.0,8.0,72,0.00,,FEW,0.00,105.00,VWS V14.01,2013-03-21 22:30:00,
2013-03-21 18:33:00,72.1,62.2,29.88,NW,317,1.0,5.0,71,0.00,,FEW,0.00,97.00,VWS V14.01,2013-03-21 22:33:00,
2013-03-21 18:34:00,72.1,62.6,29.88,NW,313,3.0,5.0,72,0.00,,FEW,0.00,93.00,VWS V14.01,2013-03-21 22:34:00,
2013-03-21 18:35:00,72.0,62.5,29.88,NW,317,3.0,5.0,72,0.00,,FEW,0.00,91.00,VWS V14.01,2013-03-21 22:35:00,
2013-03-21 18:38:00,72.1,62.2,29.88,NW,319,4.0,6.0,71,0.00,,FEW,0.00,83.00,VWS V14.01,2013-03-21 22:38:00,
2013-03-21 18:39:00,72.1,62.2,29.88,NNW,329,6.0,6.0,71,0.00,,FEW,0.00,83.00,VWS V14.01,2013-03-21 22:39:00,
2013-03-21 18:40:00,72.1,62.2,29.88,NNW,331,5.0,6.0,71,0.00,,FEW,0.00,93.00,VWS V14.01,2013-03-21 22:40:00,
2013-03-21 18:44:00,71.9,62.0,29.88,NNW,346,1.0,5.0,71,0.00,,FEW,0.00,77.00,VWS V14.01,2013-03-21 22:44:00,
2013-03-21 18:45:00,71.9,62.0,29.88,NNW,333,3.0,5.0,71,0.00,,FEW,0.00,70.00,VWS V14.01,2013-03-21 22:45:00,
2013-03-21 18:49:00,71.9,62.4,29.88,NW,319,2.0,5.0,72,0.00,,FEW,0.00,65.00,VWS V14.01,2013-03-21 22:49:00,
2013-03-21 18:51:00,71.9,62.4,29.88,NW,321,3.0,6.0,72,0.00,,FEW,0.00,67.00,VWS V14.01,2013-03-21 22:51:00,
2013-03-21 18:54:00,71.9,62.4,29.88,North,349,4.0,6.0,72,0.00,,FEW,0.00,60.00,VWS V14.01,2013-03-21 22:54:00,
2013-03-21 18:56:00,71.8,62.3,29.88,North,355,4.0,6.0,72,0.00,,FEW,0.00,54.00,VWS V14.01,2013-03-21 22:56:00,
2013-03-21 18:59:00,71.7,62.2,29.88,NNW,336,3.0,6.0,72,0.00,,FEW,0.00,47.00,VWS V14.01,2013-03-21 22:59:00,
2013-03-21 19:01:00,71.7,62.2,29.88,NNW,329,3.0,7.0,72,0.00,,FEW,0.00,44.00,VWS V14.01,2013-03-21 23:01:00,
2013-03-21 19:04:00,71.7,62.6,29.89,North,10,2.0,6.0,73,0.00,,FEW,0.00,70.00,VWS V14.01,2013-03-21 23:04:00,
2013-03-21 19:06:00,71.7,62.6,29.89,NNW,341,5.0,6.0,73,0.00,,FEW,0.00,63.00,VWS V14.01,2013-03-21 23:06:00,
2013-03-21 19:09:00,71.7,62.2,29.89,NNW,343,4.0,6.0,72,0.00,,FEW,0.00,54.00,VWS V14.01,2013-03-21 23:09:00,
2013-03-21 19:10:00,71.7,62.2,29.89,NNE,22,3.0,6.0,72,0.00,,FEW,0.00,51.00,VWS V14.01,2013-03-21 23:10:00,
2013-03-21 19:12:00,71.7,62.2,29.89,North,351,5.0,8.0,72,0.00,,FEW,0.00,44.00,VWS V14.01,2013-03-21 23:12:00,
2013-03-21 19:14:00,71.6,62.1,29.89,NNW,341,5.0,6.0,72,0.00,,FEW,0.00,26.00,VWS V14.01,2013-03-21 23:14:00,
2013-03-21 19:16:00,71.6,62.1,29.89,NNW,333,3.0,7.0,72,0.00,,FEW,0.00,23.00,VWS V14.01,2013-03-21 23:16:00,
2013-03-21 19:17:00,71.5,62.0,29.89,NNW,347,6.0,7.0,72,0.00,,FEW,0.00,23.00,VWS V14.01,2013-03-21 23:17:00,
2013-03-21 19:19:00,71.5,62.0,29.89,North,5,3.0,7.0,72,0.00,,FEW,0.00,21.00,VWS V14.01,2013-03-21 23:19:00,
2013-03-21 19:21:00,71.4,61.9,29.89,NNW,348,6.0,8.0,72,0.00,,FEW,0.00,14.00,VWS V14.01,2013-03-21 23:21:00,
2013-03-21 19:22:00,71.4,61.9,29.89,NNW,347,5.0,8.0,72,0.00,,FEW,0.00,14.00,VWS V14.01,2013-03-21 23:22:00,
2013-03-21 19:24:00,71.3,61.8,29.89,NNE,13,2.0,8.0,72,0.00,,FEW,0.00,11.00,VWS V14.01,2013-03-21 23:24:00,
2013-03-21 19:25:00,71.2,61.7,29.89,NNE,17,2.0,8.0,72,0.00,,FEW,0.00,11.00,VWS V14.01,2013-03-21 23:25:00,
2013-03-21 19:27:00,71.2,61.7,29.89,NNW,329,6.0,8.0,72,0.00,,FEW,0.00,9.00,VWS V14.01,2013-03-21 23:27:00,
2013-03-21 19:29:00,71.2,61.7,29.89,North,5,4.0,8.0,72,0.00,,FEW,0.00,7.00,VWS V14.01,2013-03-21 23:29:00,
2013-03-21 19:30:00,71.1,61.6,29.89,NNW,336,4.0,8.0,72,0.00,,FEW,0.00,5.00,VWS V14.01,2013-03-21 23:30:00,
2013-03-21 19:32:00,71.1,61.6,29.89,NNW,335,2.0,8.0,72,0.00,,FEW,0.00,5.00,VWS V14.01,2013-03-21 23:32:00,
2013-03-21 19:34:00,71.0,61.5,29.89,NNW,329,2.0,5.0,72,0.00,,FEW,0.00,0.00,VWS V14.01,2013-03-21 23:34:00,
2013-03-21 19:35:00,71.0,61.5,29.89,NW,305,3.0,5.0,72,0.00,,FEW,0.00,0.00,VWS V14.01,2013-03-21 23:35:00,
2013-03-21 19:37:00,71.0,61.9,29.89,North,360,2.0,5.0,73,0.00,,FEW,0.00,0.00,VWS V14.01,2013-03-21 23:37:00,
2013-03-21 19:39:00,71.0,61.9,29.89,NNW,346,2.0,5.0,73,0.00,,FEW,0.00,0.00,VWS V14.01,2013-03-21 23:39:00,
2013-03-21 19:40:00,71.0,61.9,29.89,North,360,4.0,5.0,73,0.00,,FEW,0.00,0.00,VWS V14.01,2013-03-21 23:40:00,
2013-03-21 19:42:00,71.0,61.5,29.89,NNE,22,3.0,3.0,72,0.00,,FEW,0.00,0.00,VWS V14.01,2013-03-21 23:42:00,
2013-03-21 19:43:00,71.0,61.5,29.89,North,360,3.0,3.0,72,0.00,,FEW,0.00,0.00,VWS V14.01,2013-03-21 23:43:00,
2013-03-21 19:44:00,71.0,61.5,29.89,NNE,13,2.0,3.0,72,0.00,,FEW,0.00,0.00,VWS V14.01,2013-03-21 23:44:00,
2013-03-21 19:45:00,71.0,61.5,29.89,NNE,32,2.0,3.0,72,0.00,,FEW,0.00,0.00,VWS V14.01,2013-03-21 23:45:00,
2013-03-21 19:47:00,71.0,61.5,29.90,North,10,0.0,4.0,72,0.00,,FEW,0.00,0.00,VWS V14.01,2013-03-21 23:47:00,
2013-03-21 19:48:00,71.0,61.5,29.90,North,10,0.0,4.0,72,0.00,,FEW,0.00,0.00,VWS V14.01,2013-03-21 23:48:00,
2013-03-21 19:49:00,71.0,61.5,29.90,NNE,13,1.0,4.0,72,0.00,,FEW,0.00,0.00,VWS V14.01,2013-03-21 23:49:00,
2013-03-21 19:50:00,71.0,61.5,29.90,NNE,13,1.0,4.0,72,0.00,,FEW,0.00,0.00,VWS V14.01,2013-03-21 23:50:00,
2013-03-21 19:52:00,71.0,61.5,29.90,NNE,25,2.0,2.0,72,0.00,,FEW,0.00,0.00,VWS V14.01,2013-03-21 23:52:00,
2013-03-21 19:53:00,71.0,61.5,29.90,NNE,25,2.0,2.0,72,0.00,,FEW,0.00,0.00,VWS V14.01,2013-03-21 23:53:00,
2013-03-21 19:54:00,71.0,61.5,29.90,NNE,25,0.0,3.0,72,0.00,,FEW,0.00,0.00,VWS V14.01,2013-03-21 23:54:00,
2013-03-21 19:55:00,71.0,61.5,29.90,NNE,25,1.0,3.0,72,0.00,,FEW,0.00,0.00,VWS V14.01,2013-03-21 23:55:00,
2013-03-21 19:58:00,70.9,61.0,29.90,NNE,23,1.0,3.0,71,0.00,,FEW,0.00,0.00,VWS V14.01,2013-03-21 23:58:00,
2013-03-21 19:59:00,70.9,61.0,29.90,NNE,24,1.0,3.0,71,0.00,,FEW,0.00,0.00,VWS V14.01,2013-03-21 23:59:00,
2013-03-21 20:00:00,70.9,61.0,29.90,NNE,24,0.0,3.0,71,0.00,,FEW,0.00,0.00,VWS V14.01,2013-03-22 00:00:00,
2013-03-21 20:03:00,70.9,61.0,29.90,NNE,17,1.0,3.0,71,0.00,,FEW,0.00,0.00,VWS V14.01,2013-03-22 00:03:00,
2013-03-21 20:04:00,70.8,60.9,29.90,NNE,17,2.0,3.0,71,0.00,,FEW,0.00,0.00,VWS V14.01,2013-03-22 00:04:00,
2013-03-21 20:05:00,70.8,60.9,29.90,NNE,17,2.0,3.0,71,0.00,,FEW,0.00,0.00,VWS V14.01,2013-03-22 00:05:00,
2013-03-21 20:08:00,70.8,60.5,29.90,North,355,2.0,3.0,70,0.00,,FEW,0.00,0.00,VWS V14.01,2013-03-22 00:08:00,
2013-03-21 20:09:00,70.8,60.5,29.90,North,355,2.0,3.0,70,0.00,,FEW,0.00,0.00,VWS V14.01,2013-03-22 00:09:00,
2013-03-21 20:11:00,70.8,60.5,29.90,North,355,1.0,3.0,70,0.00,,FEW,0.00,0.00,VWS V14.01,2013-03-22 00:11:00,
2013-03-21 20:13:00,70.8,60.5,29.90,North,355,0.0,1.0,70,0.00,,FEW,0.00,0.00,VWS V14.01,2013-03-22 00:13:00,
2013-03-21 20:14:00,70.8,60.5,29.90,North,355,1.0,1.0,70,0.00,,FEW,0.00,0.00,VWS V14.01,2013-03-22 00:14:00,
2013-03-21 20:17:00,70.8,60.5,29.90,North,355,0.0,2.0,70,0.00,,FEW,0.00,0.00,VWS V14.01,2013-03-22 00:17:00,
2013-03-21 20:18:00,70.8,60.9,29.90,North,355,0.0,2.0,71,0.00,,FEW,0.00,0.00,VWS V14.01,2013-03-22 00:18:00,
2013-03-21 20:19:00,70.8,60.9,29.90,North,355,0.0,2.0,71,0.00,,FEW,0.00,0.00,VWS V14.01,2013-03-22 00:19:00,
2013-03-21 20:20:00,70.8,60.9,29.90,North,355,0.0,2.0,71,0.00,,FEW,0.00,0.00,VWS V14.01,2013-03-22 00:20:00,
2013-03-21 20:22:00,70.9,61.0,29.90,North,355,0.0,2.0,71,0.00,,FEW,0.00,0.00,VWS V14.01,2013-03-22 00:22:00,
2013-03-21 20:24:00,70.9,61.0,29.90,North,355,1.0,2.0,71,0.00,,FEW,0.00,0.00,VWS V14.01,2013-03-22 00:24:00,
2013-03-21 20:25:00,70.9,61.0,29.90,North,355,2.0,2.0,71,0.00,,FEW,0.00,0.00,VWS V14.01,2013-03-22 00:25:00,
2013-03-21 20:27:00,70.9,61.0,29.90,North,355,0.0,2.0,71,0.00,,FEW,0.00,0.00,VWS V14.01,2013-03-22 00:27:00,
2013-03-21 20:29:00,70.9,61.0,29.90,North,355,0.0,2.0,71,0.00,,FEW,0.00,0.00,VWS V14.01,2013-03-22 00:29:00,
2013-03-21 20:30:00,70.9,61.0,29.90,North,355,0.0,2.0,71,0.00,,FEW,0.00,0.00,VWS V14.01,2013-03-22 00:30:00,
2013-03-21 20:32:00,71.0,61.1,29.91,North,355,2.0,2.0,71,0.00,,FEW,0.00,0.00,VWS V14.01,2013-03-22 00:32:00,
2013-03-21 20:34:00,71.0,61.1,29.91,North,355,0.0,2.0,71,0.00,,FEW,0.00,0.00,VWS V14.01,2013-03-22 00:34:00,
2013-03-21 20:35:00,71.0,61.1,29.91,North,5,2.0,2.0,71,0.00,,FEW,0.00,0.00,VWS V14.01,2013-03-22 00:35:00,
2013-03-21 20:37:00,71.0,61.1,29.91,North,11,2.0,3.0,71,0.00,,FEW,0.00,0.00,VWS V14.01,2013-03-22 00:37:00,
2013-03-21 20:39:00,71.0,61.1,29.91,North,11,1.0,3.0,71,0.00,,FEW,0.00,0.00,VWS V14.01,2013-03-22 00:39:00,
2013-03-21 20:40:00,71.0,61.1,29.91,North,11,1.0,3.0,71,0.00,,FEW,0.00,0.00,VWS V14.01,2013-03-22 00:40:00,
2013-03-21 20:42:00,71.0,61.1,29.91,North,11,3.0,3.0,71,0.00,,FEW,0.00,0.00,VWS V14.01,2013-03-22 00:42:00,
2013-03-21 20:44:00,71.0,61.1,29.91,North,9,2.0,3.0,71,0.00,,FEW,0.00,0.00,VWS V14.01,2013-03-22 00:44:00,
2013-03-21 20:45:00,71.0,61.1,29.91,NNE,24,2.0,4.0,71,0.00,,FEW,0.00,0.00,VWS V14.01,2013-03-22 00:45:00,
2013-03-21 20:47:00,71.0,61.5,29.91,NNE,22,1.0,4.0,72,0.00,,FEW,0.00,0.00,VWS V14.01,2013-03-22 00:47:00,
2013-03-21 20:49:00,71.0,61.5,29.91,North,11,3.0,4.0,72,0.00,,FEW,0.00,0.00,VWS V14.01,2013-03-22 00:49:00,
2013-03-21 20:50:00,71.0,61.5,29.91,North,11,1.0,4.0,72,0.00,,FEW,0.00,0.00,VWS V14.01,2013-03-22 00:50:00,
2013-03-21 20:53:00,71.0,61.5,29.91,North,11,2.0,2.0,72,0.00,,FEW,0.00,0.00,VWS V14.01,2013-03-22 00:53:00,
2013-03-21 20:54:00,71.0,61.5,29.91,NE,44,1.0,3.0,72,0.00,,FEW,0.00,0.00,VWS V14.01,2013-03-22 00:54:00,
2013-03-21 20:55:00,71.0,61.5,29.91,NNE,32,2.0,3.0,72,0.00,,FEW,0.00,0.00,VWS V14.01,2013-03-22 00:55:00,
2013-03-21 20:58:00,71.0,61.5,29.91,NNE,19,3.0,3.0,72,0.00,,FEW,0.00,0.00,VWS V14.01,2013-03-22 00:58:00,
2013-03-21 20:59:00,71.0,61.5,29.91,NNE,17,1.0,3.0,72,0.00,,FEW,0.00,0.00,VWS V14.01,2013-03-22 00:59:00,
2013-03-21 21:00:00,71.0,61.5,29.91,NNE,17,1.0,3.0,72,0.00,,FEW,0.00,0.00,VWS V14.01,2013-03-22 01:00:00,
2013-03-21 21:01:00,71.0,61.5,29.92,NNE,17,1.0,3.0,72,0.00,,FEW,0.00,0.00,VWS V14.01,2013-03-22 01:01:00,
2013-03-21 21:03:00,71.0,61.5,29.92,North,5,3.0,3.0,72,0.00,,FEW,0.00,0.00,VWS V14.01,2013-03-22 01:03:00,
2013-03-21 21:04:00,71.0,61.5,29.92,North,360,2.0,3.0,72,0.00,,FEW,0.00,0.00,VWS V14.01,2013-03-22 01:04:00,
2013-03-21 21:05:00,71.0,61.5,29.92,NNE,17,2.0,3.0,72,0.00,,FEW,0.00,0.00,VWS V14.01,2013-03-22 01:05:00,
2013-03-21 21:06:00,71.0,61.5,29.92,NNE,17,1.0,3.0,72,0.00,,FEW,0.00,0.00,VWS V14.01,2013-03-22 01:06:00,
2013-03-21 21:08:00,71.0,61.5,29.92,NNE,17,2.0,3.0,72,0.00,,FEW,0.00,0.00,VWS V14.01,2013-03-22 01:08:00,
2013-03-21 21:09:00,71.0,61.5,29.92,North,5,3.0,3.0,72,0.00,,FEW,0.00,0.00,VWS V14.01,2013-03-22 01:09:00,
2013-03-21 21:11:00,71.0,61.5,29.92,NNE,27,1.0,3.0,72,0.00,,FEW,0.00,0.00,VWS V14.01,2013-03-22 01:11:00,
2013-03-21 21:12:00,71.0,61.5,29.92,NNE,27,1.0,3.0,72,0.00,,FEW,0.00,0.00,VWS V14.01,2013-03-22 01:12:00,
2013-03-21 21:13:00,71.0,61.5,29.92,NNE,22,2.0,2.0,72,0.00,,FEW,0.00,0.00,VWS V14.01,2013-03-22 01:13:00,
2013-03-21 21:14:00,70.9,61.4,29.92,NNE,22,2.0,2.0,72,0.00,,FEW,0.00,0.00,VWS V14.01,2013-03-22 01:14:00,
2013-03-21 21:16:00,71.0,61.5,29.91,NNE,14,2.0,3.0,72,0.00,,FEW,0.00,0.00,VWS V14.01,2013-03-22 01:16:00,
2013-03-21 21:17:00,71.0,61.5,29.91,North,11,2.0,3.0,72,0.00,,FEW,0.00,0.00,VWS V14.01,2013-03-22 01:17:00,
2013-03-21 21:18:00,71.0,61.5,29.91,North,9,2.0,3.0,72,0.00,,FEW,0.00,0.00,VWS V14.01,2013-03-22 01:18:00,
2013-03-21 21:19:00,71.0,61.5,29.91,North,9,1.0,3.0,72,0.00,,FEW,0.00,0.00,VWS V14.01,2013-03-22 01:19:00,
2013-03-21 21:22:00,71.0,61.9,29.91,NNE,30,2.0,3.0,73,0.00,,FEW,0.00,0.00,VWS V14.01,2013-03-22 01:22:00,
2013-03-21 21:23:00,71.0,61.9,29.91,NNE,28,3.0,3.0,73,0.00,,FEW,0.00,0.00,VWS V14.01,2013-03-22 01:23:00,
2013-03-21 21:24:00,71.0,61.9,29.91,NNE,25,2.0,3.0,73,0.00,,FEW,0.00,0.00,VWS V14.01,2013-03-22 01:24:00,
2013-03-21 21:27:00,71.0,61.9,29.91,NE,34,1.0,4.0,73,0.00,,FEW,0.00,0.00,VWS V14.01,2013-03-22 01:27:00,
2013-03-21 21:28:00,71.0,61.9,29.91,NNE,30,3.0,4.0,73,0.00,,FEW,0.00,0.00,VWS V14.01,2013-03-22 01:28:00,
2013-03-21 21:29:00,71.0,61.9,29.91,NNE,29,1.0,4.0,73,0.00,,FEW,0.00,0.00,VWS V14.01,2013-03-22 01:29:00,
2013-03-21 21:32:00,71.0,61.9,29.92,North,5,3.0,4.0,73,0.00,,FEW,0.00,0.00,VWS V14.01,2013-03-22 01:32:00,
2013-03-21 21:33:00,71.0,61.9,29.92,North,5,3.0,4.0,73,0.00,,FEW,0.00,0.00,VWS V14.01,2013-03-22 01:33:00,
2013-03-21 21:34:00,71.0,62.3,29.92,NNE,24,3.0,4.0,74,0.00,,FEW,0.00,0.00,VWS V14.01,2013-03-22 01:34:00,
2013-03-21 21:37:00,71.0,62.3,29.92,NNE,16,3.0,4.0,74,0.00,,FEW,0.00,0.00,VWS V14.01,2013-03-22 01:37:00,
2013-03-21 21:38:00,71.0,62.3,29.92,NNE,26,2.0,4.0,74,0.00,,FEW,0.00,0.00,VWS V14.01,2013-03-22 01:38:00,
2013-03-21 21:39:00,71.0,62.3,29.92,NNE,25,2.0,4.0,74,0.00,,FEW,0.00,0.00,VWS V14.01,2013-03-22 01:39:00,
2013-03-21 21:42:00,70.9,62.2,29.92,North,360,2.0,2.0,74,0.00,,FEW,0.00,0.00,VWS V14.01,2013-03-22 01:42:00,
2013-03-21 21:44:00,70.9,62.2,29.92,NNE,24,1.0,4.0,74,0.00,,FEW,0.00,0.00,VWS V14.01,2013-03-22 01:44:00,
2013-03-21 21:47:00,70.9,62.2,29.92,NNE,23,0.0,4.0,74,0.00,,FEW,0.00,0.00,VWS V14.01,2013-03-22 01:47:00,
2013-03-21 21:48:00,70.9,62.2,29.92,NNE,22,2.0,4.0,74,0.00,,FEW,0.00,0.00,VWS V14.01,2013-03-22 01:48:00,
2013-03-21 21:49:00,70.9,62.2,29.92,NNE,22,3.0,4.0,74,0.00,,FEW,0.00,0.00,VWS V14.01,2013-03-22 01:49:00,
2013-03-21 21:52:00,70.8,62.1,29.92,North,5,1.0,2.0,74,0.00,,FEW,0.00,0.00,VWS V14.01,2013-03-22 01:52:00,
2013-03-21 21:53:00,70.8,62.1,29.92,North,5,0.0,2.0,74,0.00,,FEW,0.00,0.00,VWS V14.01,2013-03-22 01:53:00,
2013-03-21 21:54:00,70.8,62.1,29.92,North,5,1.0,2.0,74,0.00,,FEW,0.00,0.00,VWS V14.01,2013-03-22 01:54:00,
2013-03-21 21:57:00,70.7,62.0,29.92,NNE,15,1.0,3.0,74,0.00,,FEW,0.00,0.00,VWS V14.01,2013-03-22 01:57:00,
2013-03-21 21:58:00,70.8,62.1,29.92,NNE,15,1.0,3.0,74,0.00,,FEW,0.00,0.00,VWS V14.01,2013-03-22 01:58:00,
2013-03-21 21:59:00,70.7,62.4,29.92,NNE,15,2.0,3.0,75,0.00,,FEW,0.00,0.00,VWS V14.01,2013-03-22 01:59:00,
2013-03-21 22:02:00,70.7,62.4,29.93,NNE,15,2.0,2.0,75,0.00,,FEW,0.00,0.00,VWS V14.01,2013-03-22 02:02:00,
2013-03-21 22:03:00,70.7,62.4,29.93,NNE,15,2.0,2.0,75,0.00,,FEW,0.00,0.00,VWS V14.01,2013-03-22 02:03:00,
2013-03-21 22:04:00,70.6,62.3,29.93,NNE,15,1.0,2.0,75,0.00,,FEW,0.00,0.00,VWS V14.01,2013-03-22 02:04:00,
2013-03-21 22:08:00,70.6,62.3,29.93,NNE,15,0.0,2.0,75,0.00,,FEW,0.00,0.00,VWS V14.01,2013-03-22 02:08:00,
2013-03-21 22:09:00,70.6,62.3,29.93,NNE,15,0.0,2.0,75,0.00,,FEW,0.00,0.00,VWS V14.01,2013-03-22 02:09:00,
2013-03-21 22:13:00,70.5,62.2,29.93,NNE,15,1.0,2.0,75,0.00,,FEW,0.00,0.00,VWS V14.01,2013-03-22 02:13:00,
2013-03-21 22:14:00,70.5,62.2,29.93,NNE,15,1.0,2.0,75,0.00,,FEW,0.00,0.00,VWS V14.01,2013-03-22 02:14:00,
2013-03-21 22:18:00,70.4,62.1,29.93,NNE,15,1.0,2.0,75,0.00,,FEW,0.00,0.00,VWS V14.01,2013-03-22 02:18:00,
2013-03-21 22:19:00,70.4,62.1,29.93,NNE,15,0.0,2.0,75,0.00,,FEW,0.00,0.00,VWS V14.01,2013-03-22 02:19:00,
2013-03-21 22:23:00,70.4,62.1,29.93,NNE,15,0.0,0.0,75,0.00,,FEW,0.00,0.00,VWS V14.01,2013-03-22 02:23:00,
2013-03-21 22:24:00,70.4,62.1,29.93,NNE,15,0.0,0.0,75,0.00,,FEW,0.00,0.00,VWS V14.01,2013-03-22 02:24:00,
2013-03-21 22:25:00,70.4,62.1,29.93,NNE,15,0.0,1.0,75,0.00,,FEW,0.00,0.00,VWS V14.01,2013-03-22 02:25:00,
2013-03-21 22:28:00,70.4,62.1,29.93,NNE,15,0.0,1.0,75,0.00,,FEW,0.00,0.00,VWS V14.01,2013-03-22 02:28:00,
2013-03-21 22:29:00,70.3,62.0,29.93,NNE,15,0.0,1.0,75,0.00,,FEW,0.00,0.00,VWS V14.01,2013-03-22 02:29:00,
2013-03-21 22:30:00,70.3,62.0,29.93,NNE,15,1.0,1.0,75,0.00,,FEW,0.00,0.00,VWS V14.01,2013-03-22 02:30:00,
2013-03-21 22:33:00,70.3,62.0,29.93,NNE,15,0.0,1.0,75,0.00,,FEW,0.00,0.00,VWS V14.01,2013-03-22 02:33:00,
2013-03-21 22:34:00,70.3,62.0,29.93,NNE,15,0.0,1.0,75,0.00,,FEW,0.00,0.00,VWS V14.01,2013-03-22 02:34:00,
2013-03-21 22:35:00,70.3,62.0,29.93,NNE,15,2.0,2.0,75,0.00,,FEW,0.00,0.00,VWS V14.01,2013-03-22 02:35:00,
2013-03-21 22:38:00,70.3,62.0,29.93,NNE,15,1.0,2.0,75,0.00,,FEW,0.00,0.00,VWS V14.01,2013-03-22 02:38:00,
2013-03-21 22:39:00,70.3,62.0,29.93,NNE,15,0.0,2.0,75,0.00,,FEW,0.00,0.00,VWS V14.01,2013-03-22 02:39:00,
2013-03-21 22:40:00,70.3,62.0,29.93,NNE,15,0.0,2.0,75,0.00,,FEW,0.00,0.00,VWS V14.01,2013-03-22 02:40:00,
2013-03-21 22:44:00,70.3,62.0,29.93,NNE,15,0.0,0.0,75,0.00,,FEW,0.00,0.00,VWS V14.01,2013-03-22 02:44:00,
2013-03-21 22:46:00,70.3,62.0,29.94,NNE,15,1.0,2.0,75,0.00,,FEW,0.00,0.00,VWS V14.01,2013-03-22 02:46:00,
2013-03-21 22:49:00,70.3,62.4,29.94,NNE,15,1.0,2.0,76,0.00,,FEW,0.00,0.00,VWS V14.01,2013-03-22 02:49:00,
2013-03-21 22:52:00,70.3,62.0,29.94,NNE,15,1.0,2.0,75,0.00,,FEW,0.00,0.00,VWS V14.01,2013-03-22 02:52:00,
2013-03-21 22:54:00,70.3,62.0,29.94,NNE,15,0.0,3.0,75,0.00,,FEW,0.00,0.00,VWS V14.01,2013-03-22 02:54:00,
2013-03-21 22:55:00,70.3,62.0,29.94,NNE,15,1.0,3.0,75,0.00,,FEW,0.00,0.00,VWS V14.01,2013-03-22 02:55:00,
2013-03-21 22:57:00,70.3,62.4,29.94,NNE,15,1.0,3.0,76,0.00,,FEW,0.00,0.00,VWS V14.01,2013-03-22 02:57:00,
2013-03-21 22:59:00,70.3,62.4,29.94,North,5,1.0,3.0,76,0.00,,FEW,0.00,0.00,VWS V14.01,2013-03-22 02:59:00,
2013-03-21 23:00:00,70.3,62.4,29.94,North,5,1.0,3.0,76,0.00,,FEW,0.00,0.00,VWS V14.01,2013-03-22 03:00:00,
2013-03-21 23:02:00,70.4,62.5,29.94,North,5,1.0,3.0,76,0.00,,FEW,0.00,0.00,VWS V14.01,2013-03-22 03:02:00,
2013-03-21 23:04:00,70.4,62.5,29.94,North,5,2.0,2.0,76,0.00,,FEW,0.00,0.00,VWS V14.01,2013-03-22 03:04:00,
2013-03-21 23:05:00,70.4,62.5,29.94,North,5,1.0,2.0,76,0.00,,FEW,0.00,0.00,VWS V14.01,2013-03-22 03:05:00,
2013-03-21 23:07:00,70.4,62.5,29.94,North,355,2.0,4.0,76,0.00,,FEW,0.00,0.00,VWS V14.01,2013-03-22 03:07:00,
2013-03-21 23:09:00,70.4,62.5,29.94,North,355,1.0,4.0,76,0.00,,FEW,0.00,0.00,VWS V14.01,2013-03-22 03:09:00,
2013-03-21 23:10:00,70.4,62.5,29.94,North,355,1.0,4.0,76,0.00,,FEW,0.00,0.00,VWS V14.01,2013-03-22 03:10:00,
2013-03-21 23:12:00,70.4,62.5,29.94,North,355,2.0,2.0,76,0.00,,FEW,0.00,0.00,VWS V14.01,2013-03-22 03:12:00,
2013-03-21 23:14:00,70.4,62.5,29.94,North,355,1.0,2.0,76,0.00,,FEW,0.00,0.00,VWS V14.01,2013-03-22 03:14:00,
2013-03-21 23:15:00,70.5,62.6,29.94,North,355,1.0,2.0,76,0.00,,FEW,0.00,0.00,VWS V14.01,2013-03-22 03:15:00,
2013-03-21 23:17:00,70.4,62.5,29.94,North,355,2.0,2.0,76,0.00,,FEW,0.00,0.00,VWS V14.01,2013-03-22 03:17:00,
2013-03-21 23:19:00,70.5,62.6,29.94,North,355,0.0,2.0,76,0.00,,FEW,0.00,0.00,VWS V14.01,2013-03-22 03:19:00,
2013-03-21 23:20:00,70.5,62.6,29.94,North,355,0.0,2.0,76,0.00,,FEW,0.00,0.00,VWS V14.01,2013-03-22 03:20:00,
2013-03-21 23:22:00,70.4,62.5,29.94,North,355,0.0,1.0,76,0.00,,FEW,0.00,0.00,VWS V14.01,2013-03-22 03:22:00,
2013-03-21 23:24:00,70.4,62.5,29.94,North,355,1.0,2.0,76,0.00,,FEW,0.00,0.00,VWS V14.01,2013-03-22 03:24:00,
2013-03-21 23:25:00,70.4,62.5,29.94,North,355,1.0,2.0,76,0.00,,FEW,0.00,0.00,VWS V14.01,2013-03-22 03:25:00,
2013-03-21 23:27:00,70.4,62.1,29.94,North,355,0.0,2.0,75,0.00,,FEW,0.00,0.00,VWS V14.01,2013-03-22 03:27:00,
2013-03-21 23:29:00,70.4,62.1,29.94,North,355,0.0,2.0,75,0.00,,FEW,0.00,0.00,VWS V14.01,2013-03-22 03:29:00,
2013-03-21 23:30:00,70.4,62.1,29.94,North,355,0.0,2.0,75,0.00,,FEW,0.00,0.00,VWS V14.01,2013-03-22 03:30:00,
2013-03-21 23:33:00,70.4,62.1,29.93,North,355,0.0,0.0,75,0.00,,FEW,0.00,0.00,VWS V14.01,2013-03-22 03:33:00,
2013-03-21 23:35:00,70.4,62.1,29.93,North,355,0.0,0.0,75,0.00,,FEW,0.00,0.00,VWS V14.01,2013-03-22 03:35:00,
2013-03-21 23:38:00,70.4,62.1,29.93,North,355,0.0,0.0,75,0.00,,FEW,0.00,0.00,VWS V14.01,2013-03-22 03:38:00,
2013-03-21 23:40:00,70.4,62.1,29.93,North,355,0.0,0.0,75,0.00,,FEW,0.00,0.00,VWS V14.01,2013-03-22 03:40:00,
2013-03-21 23:43:00,70.4,62.1,29.93,North,355,0.0,0.0,75,0.00,,FEW,0.00,0.00,VWS V14.01,2013-03-22 03:43:00,
2013-03-21 23:45:00,70.4,62.1,29.93,North,355,0.0,0.0,75,0.00,,FEW,0.00,0.00,VWS V14.01,2013-03-22 03:45:00,
2013-03-21 23:48:00,70.3,62.0,29.93,North,355,0.0,0.0,75,0.00,,FEW,0.00,0.00,VWS V14.01,2013-03-22 03:48:00,
2013-03-21 23:50:00,70.3,62.0,29.93,North,355,0.0,0.0,75,0.00,,FEW,0.00,0.00,VWS V14.01,2013-03-22 03:50:00,
2013-03-21 23:53:00,70.3,62.0,29.93,North,355,0.0,0.0,75,0.00,,FEW,0.00,0.00,VWS V14.01,2013-03-22 03:53:00,
2013-03-21 23:55:00,70.3,62.0,29.93,North,355,0.0,0.0,75,0.00,,FEW,0.00,0.00,VWS V14.01,2013-03-22 03:55:00,
2013-03-21 23:56:00,70.3,62.0,29.93,North,355,0.0,0.0,75,0.00,,FEW,0.00,0.00,VWS V14.01,2013-03-22 03:56:00,
2013-03-21 23:58:00,70.3,62.4,29.93,North,355,0.0,0.0,76,0.00,,FEW,0.00,0.00,VWS V14.01,2013-03-22 03:58:00,